Time,TemperatureF,DewpointF,PressureIn,WindDirection,WindDirectionDegrees,WindSpeedMPH,WindSpeedGustMPH,Humidity,HourlyPrecipIn,Conditions,Clouds,dailyrainin,SolarRadiationWatts/m^2,SoftwareType,DateUTC
2013-05-15 00:00:00,73.0,58.8,30.18,NE,44,4.0,9.0,61,0.00,,SCT050,0.00,0.00,VWS V14.01,2013-05-15 04:00:00,
2013-05-15 00:01:00,73.1,58.9,30.18,NE,38,4.0,5.0,61,0.00,,SCT050,0.00,0.00,VWS V14.01,2013-05-15 04:01:00,
2013-05-15 00:05:00,73.1,58.9,30.18,NE,42,3.0,4.0,61,0.00,,CLR,0.00,0.00,VWS V14.01,2013-05-15 04:05:00,
2013-05-15 00:06:00,73.1,58.9,30.18,NE,35,4.0,5.0,61,0.00,,SCT050,0.00,0.00,VWS V14.01,2013-05-15 04:06:00,
2013-05-15 00:10:00,73.1,58.9,30.18,NE,38,3.0,5.0,61,0.00,,CLR,0.00,0.00,VWS V14.01,2013-05-15 04:10:00,
2013-05-15 00:11:00,73.1,58.9,30.18,NE,44,4.0,4.0,61,0.00,,SCT050,0.00,0.00,VWS V14.01,2013-05-15 04:11:00,
2013-05-15 00:15:00,73.1,58.9,30.18,NE,40,6.0,6.0,61,0.00,,CLR,0.00,0.00,VWS V14.01,2013-05-15 04:15:00,
2013-05-15 00:16:00,73.1,58.9,30.18,NE,34,3.0,6.0,61,0.00,,SCT050,0.00,0.00,VWS V14.01,2013-05-15 04:16:00,
2013-05-15 00:20:00,73.1,58.9,30.18,NE,36,3.0,5.0,61,0.00,,CLR,0.00,0.00,VWS V14.01,2013-05-15 04:20:00,
2013-05-15 00:21:00,73.0,58.8,30.18,NE,44,3.0,5.0,61,0.00,,SCT050,0.00,0.00,VWS V14.01,2013-05-15 04:21:00,
2013-05-15 00:25:00,73.0,58.8,30.17,NNE,33,6.0,7.0,61,0.00,,CLR,0.00,0.00,VWS V14.01,2013-05-15 04:25:00,
2013-05-15 00:26:00,73.0,58.8,30.17,NE,47,4.0,5.0,61,0.00,,SCT050,0.00,0.00,VWS V14.01,2013-05-15 04:26:00,
2013-05-15 00:30:00,73.0,58.8,30.17,ENE,69,5.0,6.0,61,0.00,,CLR,0.00,0.00,VWS V14.01,2013-05-15 04:30:00,
2013-05-15 00:31:00,72.9,58.7,30.17,NE,46,3.0,4.0,61,0.00,,SCT050,0.00,0.00,VWS V14.01,2013-05-15 04:31:00,
2013-05-15 00:35:00,72.9,58.7,30.17,NE,40,2.0,7.0,61,0.00,,CLR,0.00,0.00,VWS V14.01,2013-05-15 04:35:00,
2013-05-15 00:36:00,72.9,58.7,30.17,NE,37,3.0,4.0,61,0.00,,SCT050,0.00,0.00,VWS V14.01,2013-05-15 04:36:00,
2013-05-15 00:40:00,72.9,58.2,30.17,NNE,29,2.0,4.0,60,0.00,,CLR,0.00,0.00,VWS V14.01,2013-05-15 04:40:00,
2013-05-15 00:41:00,72.8,58.6,30.17,NNE,32,3.0,5.0,61,0.00,,SCT050,0.00,0.00,VWS V14.01,2013-05-15 04:41:00,
2013-05-15 00:45:00,72.8,58.6,30.17,NE,40,3.0,4.0,61,0.00,,CLR,0.00,0.00,VWS V14.01,2013-05-15 04:45:00,
2013-05-15 00:46:00,72.7,58.5,30.17,NNE,30,1.0,4.0,61,0.00,,SCT050,0.00,0.00,VWS V14.01,2013-05-15 04:46:00,
2013-05-15 00:50:00,72.7,58.9,30.17,NE,35,2.0,4.0,62,0.00,,CLR,0.00,0.00,VWS V14.01,2013-05-15 04:50:00,
2013-05-15 00:51:00,72.6,58.8,30.17,NE,35,2.0,3.0,62,0.00,,FEW047,0.00,0.00,VWS V14.01,2013-05-15 04:51:00,
2013-05-15 00:55:00,72.6,58.8,30.17,NE,40,3.0,4.0,62,0.00,,CLR,0.00,0.00,VWS V14.01,2013-05-15 04:55:00,
2013-05-15 00:56:00,72.5,58.8,30.17,NE,41,1.0,3.0,62,0.00,,FEW047,0.00,0.00,VWS V14.01,2013-05-15 04:56:00,
2013-05-15 01:00:00,72.4,58.7,30.17,NE,38,1.0,5.0,62,0.00,,CLR,0.00,0.00,VWS V14.01,2013-05-15 05:00:00,
2013-05-15 01:03:00,72.2,58.5,30.17,NE,34,2.0,3.0,62,0.00,,FEW047,0.00,0.00,VWS V14.01,2013-05-15 05:03:00,
2013-05-15 01:05:00,72.2,58.5,30.17,NE,34,1.0,3.0,62,0.00,,CLR,0.00,0.00,VWS V14.01,2013-05-15 05:05:00,
2013-05-15 01:08:00,72.1,58.4,30.17,NE,34,1.0,2.0,62,0.00,,FEW047,0.00,0.00,VWS V14.01,2013-05-15 05:08:00,
2013-05-15 01:10:00,72.0,58.3,30.17,NE,34,1.0,3.0,62,0.00,,CLR,0.00,0.00,VWS V14.01,2013-05-15 05:10:00,
2013-05-15 01:13:00,71.9,58.6,30.16,NNE,33,2.0,3.0,63,0.00,,FEW047,0.00,0.00,VWS V14.01,2013-05-15 05:13:00,
2013-05-15 01:15:00,71.8,58.5,30.16,NNE,33,3.0,3.0,63,0.00,,CLR,0.00,0.00,VWS V14.01,2013-05-15 05:15:00,
2013-05-15 01:18:00,71.7,58.5,30.16,NE,44,2.0,3.0,63,0.00,,FEW047,0.00,0.00,VWS V14.01,2013-05-15 05:18:00,
2013-05-15 01:20:00,71.7,58.5,30.16,NE,44,2.0,3.0,63,0.00,,CLR,0.00,0.00,VWS V14.01,2013-05-15 05:20:00,
2013-05-15 01:23:00,71.6,58.3,30.16,NE,43,1.0,3.0,63,0.00,,FEW047,0.00,0.00,VWS V14.01,2013-05-15 05:23:00,
2013-05-15 01:25:00,71.6,58.3,30.16,NE,44,1.0,3.0,63,0.00,,CLR,0.00,0.00,VWS V14.01,2013-05-15 05:25:00,
2013-05-15 01:28:00,71.6,58.8,30.16,NE,44,2.0,3.0,64,0.00,,FEW047,0.00,0.00,VWS V14.01,2013-05-15 05:28:00,
2013-05-15 01:30:00,71.5,58.7,30.16,NE,44,0.0,2.0,64,0.00,,CLR,0.00,0.00,VWS V14.01,2013-05-15 05:30:00,
2013-05-15 01:33:00,71.5,58.7,30.16,NE,40,1.0,2.0,64,0.00,,FEW047,0.00,0.00,VWS V14.01,2013-05-15 05:33:00,
2013-05-15 01:35:00,71.5,58.7,30.16,NE,40,0.0,1.0,64,0.00,,CLR,0.00,0.00,VWS V14.01,2013-05-15 05:35:00,
2013-05-15 01:38:00,71.3,58.5,30.16,NE,40,1.0,2.0,64,0.00,,FEW047,0.00,0.00,VWS V14.01,2013-05-15 05:38:00,
2013-05-15 01:40:00,71.3,58.5,30.16,NE,40,1.0,2.0,64,0.00,,CLR,0.00,0.00,VWS V14.01,2013-05-15 05:40:00,
2013-05-15 01:43:00,71.2,58.8,30.15,NE,40,0.0,1.0,65,0.00,,FEW047,0.00,0.00,VWS V14.01,2013-05-15 05:43:00,
2013-05-15 01:45:00,71.2,58.8,30.15,NE,40,0.0,1.0,65,0.00,,CLR,0.00,0.00,VWS V14.01,2013-05-15 05:45:00,
2013-05-15 01:48:00,71.0,58.7,30.15,NE,40,1.0,3.0,65,0.00,,CLR,0.00,0.00,VWS V14.01,2013-05-15 05:48:00,
2013-05-15 01:50:00,71.0,58.7,30.15,NE,40,0.0,3.0,65,0.00,,CLR,0.00,0.00,VWS V14.01,2013-05-15 05:50:00,
2013-05-15 01:53:00,71.0,59.1,30.15,NE,40,3.0,3.0,66,0.00,,CLR,0.00,0.00,VWS V14.01,2013-05-15 05:53:00,
2013-05-15 01:55:00,70.9,59.0,30.15,NE,43,1.0,3.0,66,0.00,,CLR,0.00,0.00,VWS V14.01,2013-05-15 05:55:00,
2013-05-15 01:58:00,71.0,59.1,30.15,NE,43,0.0,0.0,66,0.00,,CLR,0.00,0.00,VWS V14.01,2013-05-15 05:58:00,
2013-05-15 02:00:00,70.9,59.0,30.15,NE,43,0.0,0.0,66,0.00,,CLR,0.00,0.00,VWS V14.01,2013-05-15 06:00:00,
2013-05-15 02:03:00,70.8,58.9,30.15,NE,43,0.0,1.0,66,0.00,,CLR,0.00,0.00,VWS V14.01,2013-05-15 06:03:00,
2013-05-15 02:05:00,70.8,58.9,30.15,NE,43,0.0,1.0,66,0.00,,CLR,0.00,0.00,VWS V14.01,2013-05-15 06:05:00,
2013-05-15 02:08:00,70.5,58.6,30.15,NE,43,0.0,1.0,66,0.00,,CLR,0.00,0.00,VWS V14.01,2013-05-15 06:08:00,
2013-05-15 02:10:00,70.5,58.6,30.15,NE,43,0.0,1.0,66,0.00,,CLR,0.00,0.00,VWS V14.01,2013-05-15 06:10:00,
2013-05-15 02:13:00,70.3,58.8,30.14,NE,43,0.0,0.0,67,0.00,,CLR,0.00,0.00,VWS V14.01,2013-05-15 06:13:00,
2013-05-15 02:15:00,70.2,58.7,30.14,NE,43,0.0,0.0,67,0.00,,CLR,0.00,0.00,VWS V14.01,2013-05-15 06:15:00,
2013-05-15 02:18:00,69.8,58.8,30.14,NE,43,0.0,0.0,68,0.00,,CLR,0.00,0.00,VWS V14.01,2013-05-15 06:18:00,
2013-05-15 02:20:00,69.8,58.8,30.14,NE,43,0.0,0.0,68,0.00,,CLR,0.00,0.00,VWS V14.01,2013-05-15 06:20:00,
2013-05-15 02:23:00,69.4,58.8,30.14,NE,43,0.0,0.0,69,0.00,,CLR,0.00,0.00,VWS V14.01,2013-05-15 06:23:00,
2013-05-15 02:25:00,69.4,58.8,30.14,NE,43,0.0,0.0,69,0.00,,CLR,0.00,0.00,VWS V14.01,2013-05-15 06:25:00,
2013-05-15 02:28:00,69.1,58.5,30.14,NE,43,0.0,0.0,69,0.00,,CLR,0.00,0.00,VWS V14.01,2013-05-15 06:28:00,
2013-05-15 02:30:00,69.0,58.4,30.14,NE,43,0.0,0.0,69,0.00,,CLR,0.00,0.00,VWS V14.01,2013-05-15 06:30:00,
2013-05-15 02:33:00,68.8,58.6,30.14,NE,43,0.0,0.0,70,0.00,,CLR,0.00,0.00,VWS V14.01,2013-05-15 06:33:00,
2013-05-15 02:35:00,68.8,58.6,30.14,NE,43,0.0,0.0,70,0.00,,CLR,0.00,0.00,VWS V14.01,2013-05-15 06:35:00,
2013-05-15 02:38:00,68.5,58.3,30.14,NE,43,0.0,0.0,70,0.00,,CLR,0.00,0.00,VWS V14.01,2013-05-15 06:38:00,
2013-05-15 02:40:00,68.5,58.3,30.14,NE,43,0.0,0.0,70,0.00,,CLR,0.00,0.00,VWS V14.01,2013-05-15 06:40:00,
2013-05-15 02:43:00,68.4,59.0,30.14,NE,43,0.0,1.0,72,0.00,,CLR,0.00,0.00,VWS V14.01,2013-05-15 06:43:00,
2013-05-15 02:45:00,68.4,59.0,30.14,NE,43,0.0,0.0,72,0.00,,CLR,0.00,0.00,VWS V14.01,2013-05-15 06:45:00,
2013-05-15 02:48:00,68.1,58.7,30.14,NE,43,0.0,0.0,72,0.00,,CLR,0.00,0.00,VWS V14.01,2013-05-15 06:48:00,
2013-05-15 02:50:00,68.1,58.7,30.14,NE,43,0.0,0.0,72,0.00,,CLR,0.00,0.00,VWS V14.01,2013-05-15 06:50:00,
2013-05-15 02:53:00,68.0,59.0,30.14,NE,43,0.0,1.0,73,0.00,,CLR,0.00,0.00,VWS V14.01,2013-05-15 06:53:00,
2013-05-15 02:55:00,68.0,59.0,30.14,NE,43,0.0,1.0,73,0.00,,CLR,0.00,0.00,VWS V14.01,2013-05-15 06:55:00,
2013-05-15 02:58:00,67.9,58.9,30.14,NE,43,0.0,0.0,73,0.00,,CLR,0.00,0.00,VWS V14.01,2013-05-15 06:58:00,
2013-05-15 03:00:00,67.9,58.9,30.14,NE,43,0.0,0.0,73,0.00,,CLR,0.00,0.00,VWS V14.01,2013-05-15 07:00:00,
2013-05-15 03:03:00,67.7,58.7,30.14,NE,43,0.0,0.0,73,0.00,,CLR,0.00,0.00,VWS V14.01,2013-05-15 07:03:00,
2013-05-15 03:05:00,67.7,58.7,30.14,NE,43,0.0,0.0,73,0.00,,CLR,0.00,0.00,VWS V14.01,2013-05-15 07:05:00,
2013-05-15 03:08:00,67.7,58.7,30.14,NE,43,0.0,0.0,73,0.00,,CLR,0.00,0.00,VWS V14.01,2013-05-15 07:08:00,
2013-05-15 03:10:00,67.7,59.1,30.14,NE,43,0.0,0.0,74,0.00,,CLR,0.00,0.00,VWS V14.01,2013-05-15 07:10:00,
2013-05-15 03:13:00,67.7,59.1,30.14,NE,43,0.0,0.0,74,0.00,,CLR,0.00,0.00,VWS V14.01,2013-05-15 07:13:00,
2013-05-15 03:15:00,67.8,59.2,30.14,NE,43,0.0,0.0,74,0.00,,CLR,0.00,0.00,VWS V14.01,2013-05-15 07:15:00,
2013-05-15 03:18:00,67.8,59.2,30.14,NE,43,0.0,0.0,74,0.00,,CLR,0.00,0.00,VWS V14.01,2013-05-15 07:18:00,
2013-05-15 03:20:00,67.8,59.2,30.14,NE,43,0.0,0.0,74,0.00,,CLR,0.00,0.00,VWS V14.01,2013-05-15 07:20:00,
2013-05-15 03:23:00,67.9,59.3,30.14,NE,43,0.0,0.0,74,0.00,,CLR,0.00,0.00,VWS V14.01,2013-05-15 07:23:00,
2013-05-15 03:25:00,67.9,59.3,30.14,NE,43,0.0,0.0,74,0.00,,CLR,0.00,0.00,VWS V14.01,2013-05-15 07:25:00,
2013-05-15 03:28:00,67.9,59.3,30.14,NE,43,0.0,0.0,74,0.00,,CLR,0.00,0.00,VWS V14.01,2013-05-15 07:28:00,
2013-05-15 03:30:00,67.9,59.3,30.14,NE,43,0.0,0.0,74,0.00,,CLR,0.00,0.00,VWS V14.01,2013-05-15 07:30:00,
2013-05-15 03:33:00,68.0,59.8,30.14,NE,43,0.0,0.0,75,0.00,,CLR,0.00,0.00,VWS V14.01,2013-05-15 07:33:00,
2013-05-15 03:35:00,68.0,59.4,30.14,NE,43,0.0,0.0,74,0.00,,CLR,0.00,0.00,VWS V14.01,2013-05-15 07:35:00,
2013-05-15 03:38:00,68.0,59.8,30.14,NE,43,0.0,0.0,75,0.00,,CLR,0.00,0.00,VWS V14.01,2013-05-15 07:38:00,
2013-05-15 03:40:00,67.9,59.7,30.14,NE,43,0.0,0.0,75,0.00,,CLR,0.00,0.00,VWS V14.01,2013-05-15 07:40:00,
2013-05-15 03:43:00,68.0,59.8,30.14,NE,43,0.0,0.0,75,0.00,,CLR,0.00,0.00,VWS V14.01,2013-05-15 07:43:00,
2013-05-15 03:45:00,68.0,59.8,30.14,NE,43,1.0,1.0,75,0.00,,CLR,0.00,0.00,VWS V14.01,2013-05-15 07:45:00,
2013-05-15 03:48:00,68.0,59.8,30.14,NE,43,0.0,1.0,75,0.00,,CLR,0.00,0.00,VWS V14.01,2013-05-15 07:48:00,
2013-05-15 03:50:00,68.0,59.8,30.14,NE,43,1.0,1.0,75,0.00,,CLR,0.00,0.00,VWS V14.01,2013-05-15 07:50:00,
2013-05-15 03:53:00,68.1,59.9,30.14,NE,43,0.0,0.0,75,0.00,,CLR,0.00,0.00,VWS V14.01,2013-05-15 07:53:00,
2013-05-15 03:55:00,68.1,59.9,30.14,NE,43,0.0,0.0,75,0.00,,CLR,0.00,0.00,VWS V14.01,2013-05-15 07:55:00,
2013-05-15 03:58:00,68.2,60.0,30.14,NE,43,1.0,1.0,75,0.00,,CLR,0.00,0.00,VWS V14.01,2013-05-15 07:58:00,
2013-05-15 04:00:00,68.2,60.0,30.14,NE,43,1.0,1.0,75,0.00,,CLR,0.00,0.00,VWS V14.01,2013-05-15 08:00:00,
2013-05-15 04:03:00,68.3,60.1,30.14,NE,43,0.0,1.0,75,0.00,,CLR,0.00,0.00,VWS V14.01,2013-05-15 08:03:00,
2013-05-15 04:05:00,68.3,60.1,30.14,NE,43,1.0,1.0,75,0.00,,CLR,0.00,0.00,VWS V14.01,2013-05-15 08:05:00,
2013-05-15 04:08:00,68.4,60.2,30.14,NE,43,1.0,1.0,75,0.00,,CLR,0.00,0.00,VWS V14.01,2013-05-15 08:08:00,
2013-05-15 04:10:00,68.4,60.2,30.14,NE,43,1.0,1.0,75,0.00,,CLR,0.00,0.00,VWS V14.01,2013-05-15 08:10:00,
2013-05-15 04:13:00,68.5,59.9,30.14,NE,43,0.0,0.0,74,0.00,,CLR,0.00,0.00,VWS V14.01,2013-05-15 08:13:00,
2013-05-15 04:15:00,68.5,60.3,30.13,NE,43,0.0,0.0,75,0.00,,CLR,0.00,0.00,VWS V14.01,2013-05-15 08:15:00,
2013-05-15 04:18:00,68.6,60.4,30.14,NE,43,0.0,1.0,75,0.00,,CLR,0.00,0.00,VWS V14.01,2013-05-15 08:18:00,
2013-05-15 04:20:00,68.6,60.4,30.14,NE,43,0.0,1.0,75,0.00,,CLR,0.00,0.00,VWS V14.01,2013-05-15 08:20:00,
2013-05-15 04:23:00,68.6,60.0,30.14,NE,43,0.0,0.0,74,0.00,,CLR,0.00,0.00,VWS V14.01,2013-05-15 08:23:00,
2013-05-15 04:25:00,68.6,60.0,30.14,NE,43,0.0,0.0,74,0.00,,CLR,0.00,0.00,VWS V14.01,2013-05-15 08:25:00,
2013-05-15 04:28:00,68.7,60.5,30.13,NE,43,0.0,0.0,75,0.00,,CLR,0.00,0.00,VWS V14.01,2013-05-15 08:28:00,
2013-05-15 04:30:00,68.7,60.5,30.13,NE,43,0.0,0.0,75,0.00,,CLR,0.00,0.00,VWS V14.01,2013-05-15 08:30:00,
2013-05-15 04:33:00,68.7,60.5,30.14,NE,43,0.0,0.0,75,0.00,,CLR,0.00,0.00,VWS V14.01,2013-05-15 08:33:00,
2013-05-15 04:35:00,68.7,60.5,30.14,NE,43,0.0,0.0,75,0.00,,CLR,0.00,0.00,VWS V14.01,2013-05-15 08:35:00,
2013-05-15 04:38:00,68.6,60.4,30.14,NE,43,1.0,1.0,75,0.00,,CLR,0.00,0.00,VWS V14.01,2013-05-15 08:38:00,
2013-05-15 04:40:00,68.6,60.4,30.14,NE,43,1.0,1.0,75,0.00,,CLR,0.00,0.00,VWS V14.01,2013-05-15 08:40:00,
2013-05-15 04:43:00,68.5,60.3,30.13,NE,43,0.0,1.0,75,0.00,,CLR,0.00,0.00,VWS V14.01,2013-05-15 08:43:00,
2013-05-15 04:45:00,68.5,60.3,30.14,NE,43,0.0,0.0,75,0.00,,CLR,0.00,0.00,VWS V14.01,2013-05-15 08:45:00,
2013-05-15 04:48:00,68.3,60.5,30.14,NE,43,0.0,0.0,76,0.00,,CLR,0.00,0.00,VWS V14.01,2013-05-15 08:48:00,
2013-05-15 04:50:00,68.3,60.5,30.14,NE,43,0.0,0.0,76,0.00,,CLR,0.00,0.00,VWS V14.01,2013-05-15 08:50:00,
2013-05-15 04:53:00,68.2,60.7,30.14,NE,43,0.0,0.0,77,0.00,,FEW045,0.00,0.00,VWS V14.01,2013-05-15 08:53:00,
2013-05-15 04:55:00,68.2,60.7,30.14,NE,43,0.0,0.0,77,0.00,,CLR,0.00,0.00,VWS V14.01,2013-05-15 08:55:00,
2013-05-15 04:58:00,68.2,60.7,30.14,NE,43,2.0,2.0,77,0.00,,FEW045,0.00,0.00,VWS V14.01,2013-05-15 08:58:00,
2013-05-15 05:00:00,68.1,60.6,30.14,NE,43,1.0,2.0,77,0.00,,CLR,0.00,0.00,VWS V14.01,2013-05-15 09:00:00,
2013-05-15 05:03:00,68.2,60.7,30.14,NE,43,0.0,0.0,77,0.00,,FEW045,0.00,0.00,VWS V14.01,2013-05-15 09:03:00,
2013-05-15 05:05:00,68.2,60.7,30.14,NE,43,0.0,0.0,77,0.00,,CLR,0.00,0.00,VWS V14.01,2013-05-15 09:05:00,
2013-05-15 05:08:00,68.1,60.6,30.14,NE,43,0.0,0.0,77,0.00,,FEW045,0.00,0.00,VWS V14.01,2013-05-15 09:08:00,
2013-05-15 05:10:00,68.1,61.0,30.14,NE,43,0.0,0.0,78,0.00,,CLR,0.00,0.00,VWS V14.01,2013-05-15 09:10:00,
2013-05-15 05:13:00,68.1,61.0,30.14,NE,43,0.0,0.0,78,0.00,,FEW045,0.00,0.00,VWS V14.01,2013-05-15 09:13:00,
2013-05-15 05:15:00,68.1,61.0,30.14,NE,43,1.0,3.0,78,0.00,,CLR,0.00,0.00,VWS V14.01,2013-05-15 09:15:00,
2013-05-15 05:18:00,68.2,61.1,30.14,NE,43,1.0,2.0,78,0.00,,FEW045,0.00,0.00,VWS V14.01,2013-05-15 09:18:00,
2013-05-15 05:20:00,68.2,61.1,30.14,NE,43,1.0,2.0,78,0.00,,CLR,0.00,0.00,VWS V14.01,2013-05-15 09:20:00,
2013-05-15 05:23:00,68.3,61.2,30.14,NE,43,0.0,0.0,78,0.00,,FEW045,0.00,0.00,VWS V14.01,2013-05-15 09:23:00,
2013-05-15 05:25:00,68.3,61.2,30.14,NE,43,0.0,0.0,78,0.00,,CLR,0.00,0.00,VWS V14.01,2013-05-15 09:25:00,
2013-05-15 05:28:00,68.3,61.2,30.14,NE,43,0.0,1.0,78,0.00,,FEW045,0.00,0.00,VWS V14.01,2013-05-15 09:28:00,
2013-05-15 05:30:00,68.3,61.2,30.14,NE,43,0.0,1.0,78,0.00,,CLR,0.00,0.00,VWS V14.01,2013-05-15 09:30:00,
2013-05-15 05:33:00,68.3,61.2,30.14,NE,43,0.0,0.0,78,0.00,,FEW045,0.00,0.00,VWS V14.01,2013-05-15 09:33:00,
2013-05-15 05:35:00,68.2,61.1,30.14,NE,43,0.0,0.0,78,0.00,,CLR,0.00,0.00,VWS V14.01,2013-05-15 09:35:00,
2013-05-15 05:38:00,68.2,61.5,30.14,NE,43,0.0,0.0,79,0.00,,FEW045,0.00,0.00,VWS V14.01,2013-05-15 09:38:00,
2013-05-15 05:40:00,68.1,61.0,30.14,NE,43,0.0,0.0,78,0.00,,CLR,0.00,0.00,VWS V14.01,2013-05-15 09:40:00,
2013-05-15 05:43:00,68.0,61.2,30.14,NE,43,0.0,0.0,79,0.00,,FEW045,0.00,0.00,VWS V14.01,2013-05-15 09:43:00,
2013-05-15 05:45:00,68.0,61.2,30.14,NE,43,0.0,0.0,79,0.00,,CLR,0.00,0.00,VWS V14.01,2013-05-15 09:45:00,
2013-05-15 05:48:00,67.9,61.2,30.15,NE,43,0.0,0.0,79,0.00,,FEW045,0.00,0.00,VWS V14.01,2013-05-15 09:48:00,
2013-05-15 05:50:00,67.9,61.2,30.15,NE,43,0.0,0.0,79,0.00,,CLR,0.00,0.00,VWS V14.01,2013-05-15 09:50:00,
2013-05-15 05:53:00,67.8,61.1,30.15,NE,43,0.0,0.0,79,0.00,,CLR,0.00,0.00,VWS V14.01,2013-05-15 09:53:00,
2013-05-15 05:55:00,67.8,61.4,30.15,NE,43,0.0,0.0,80,0.00,,CLR,0.00,0.00,VWS V14.01,2013-05-15 09:55:00,
2013-05-15 05:58:00,67.7,61.3,30.15,NE,43,0.0,0.0,80,0.00,,CLR,0.00,0.00,VWS V14.01,2013-05-15 09:58:00,
2013-05-15 06:00:00,67.7,61.3,30.15,NE,43,0.0,0.0,80,0.00,,CLR,0.00,0.00,VWS V14.01,2013-05-15 10:00:00,
2013-05-15 06:03:00,67.6,61.2,30.15,NE,43,0.0,0.0,80,0.00,,CLR,0.00,0.00,VWS V14.01,2013-05-15 10:03:00,
2013-05-15 06:05:00,67.5,61.1,30.15,NE,43,0.0,0.0,80,0.00,,CLR,0.00,0.00,VWS V14.01,2013-05-15 10:05:00,
2013-05-15 06:08:00,67.3,60.9,30.15,NE,43,1.0,1.0,80,0.00,,CLR,0.00,0.00,VWS V14.01,2013-05-15 10:08:00,
2013-05-15 06:10:00,67.2,61.2,30.15,NE,43,1.0,1.0,81,0.00,,CLR,0.00,0.00,VWS V14.01,2013-05-15 10:10:00,
2013-05-15 06:13:00,67.0,61.0,30.15,NE,43,0.0,1.0,81,0.00,,CLR,0.00,0.00,VWS V14.01,2013-05-15 10:13:00,
2013-05-15 06:15:00,67.0,61.0,30.15,NE,43,0.0,1.0,81,0.00,,CLR,0.00,0.00,VWS V14.01,2013-05-15 10:15:00,
2013-05-15 06:18:00,66.8,61.1,30.15,NE,43,1.0,2.0,82,0.00,,CLR,0.00,0.00,VWS V14.01,2013-05-15 10:18:00,
2013-05-15 06:20:00,66.8,61.1,30.15,NE,43,1.0,2.0,82,0.00,,CLR,0.00,0.00,VWS V14.01,2013-05-15 10:20:00,
2013-05-15 06:23:00,66.6,60.9,30.15,NE,43,0.0,0.0,82,0.00,,CLR,0.00,0.00,VWS V14.01,2013-05-15 10:23:00,
2013-05-15 06:25:00,66.6,60.9,30.15,NE,43,0.0,0.0,82,0.00,,CLR,0.00,0.00,VWS V14.01,2013-05-15 10:25:00,
2013-05-15 06:28:00,66.5,61.2,30.15,NE,43,0.0,0.0,83,0.00,,CLR,0.00,0.00,VWS V14.01,2013-05-15 10:28:00,
2013-05-15 06:30:00,66.4,61.1,30.15,NE,43,0.0,0.0,83,0.00,,CLR,0.00,0.00,VWS V14.01,2013-05-15 10:30:00,
2013-05-15 06:33:00,66.3,61.3,30.15,NE,43,0.0,0.0,84,0.00,,CLR,0.00,0.00,VWS V14.01,2013-05-15 10:33:00,
2013-05-15 06:35:00,66.3,61.3,30.15,NE,43,0.0,0.0,84,0.00,,CLR,0.00,0.00,VWS V14.01,2013-05-15 10:35:00,
2013-05-15 06:38:00,66.3,61.3,30.16,NE,43,0.0,2.0,84,0.00,,CLR,0.00,5.00,VWS V14.01,2013-05-15 10:38:00,
2013-05-15 06:40:00,66.3,61.3,30.16,NE,43,0.0,1.0,84,0.00,,CLR,0.00,5.00,VWS V14.01,2013-05-15 10:40:00,
2013-05-15 06:43:00,66.3,61.3,30.16,NE,43,0.0,0.0,84,0.00,,CLR,0.00,7.00,VWS V14.01,2013-05-15 10:43:00,
2013-05-15 06:45:00,66.3,61.3,30.16,NE,43,0.0,0.0,84,0.00,,CLR,0.00,7.00,VWS V14.01,2013-05-15 10:45:00,
2013-05-15 06:48:00,66.4,61.4,30.16,NE,43,0.0,0.0,84,0.00,,CLR,0.00,11.00,VWS V14.01,2013-05-15 10:48:00,
2013-05-15 06:50:00,66.4,61.4,30.16,NE,43,0.0,0.0,84,0.00,,CLR,0.00,11.00,VWS V14.01,2013-05-15 10:50:00,
2013-05-15 06:53:00,66.5,61.5,30.16,NE,43,0.0,0.0,84,0.00,,CLR,0.00,14.00,VWS V14.01,2013-05-15 10:53:00,
2013-05-15 06:55:00,66.5,61.5,30.16,NE,43,0.0,0.0,84,0.00,,CLR,0.00,14.00,VWS V14.01,2013-05-15 10:55:00,
2013-05-15 06:58:00,66.6,61.6,30.16,NE,43,0.0,0.0,84,0.00,,CLR,0.00,18.00,VWS V14.01,2013-05-15 10:58:00,
2013-05-15 07:00:00,66.6,61.6,30.16,NE,43,0.0,0.0,84,0.00,,CLR,0.00,16.00,VWS V14.01,2013-05-15 11:00:00,
2013-05-15 07:03:00,66.7,61.7,30.16,NE,43,0.0,2.0,84,0.00,,CLR,0.00,18.00,VWS V14.01,2013-05-15 11:03:00,
2013-05-15 07:05:00,66.7,61.7,30.16,NE,43,0.0,2.0,84,0.00,,CLR,0.00,18.00,VWS V14.01,2013-05-15 11:05:00,
2013-05-15 07:08:00,66.8,61.8,30.16,NE,43,0.0,0.0,84,0.00,,CLR,0.00,18.00,VWS V14.01,2013-05-15 11:08:00,
2013-05-15 07:10:00,66.8,61.8,30.16,NE,43,0.0,0.0,84,0.00,,CLR,0.00,18.00,VWS V14.01,2013-05-15 11:10:00,
2013-05-15 07:13:00,66.8,61.5,30.16,NE,43,0.0,0.0,83,0.00,,CLR,0.00,19.00,VWS V14.01,2013-05-15 11:13:00,
2013-05-15 07:15:00,66.8,61.5,30.16,NE,43,0.0,0.0,83,0.00,,CLR,0.00,21.00,VWS V14.01,2013-05-15 11:15:00,
2013-05-15 07:18:00,66.9,61.6,30.16,NE,43,1.0,1.0,83,0.00,,CLR,0.00,23.00,VWS V14.01,2013-05-15 11:18:00,
2013-05-15 07:20:00,67.0,61.7,30.16,NE,43,1.0,1.0,83,0.00,,CLR,0.00,26.00,VWS V14.01,2013-05-15 11:20:00,
2013-05-15 07:24:00,67.3,62.0,30.16,NE,36,2.0,3.0,83,0.00,,CLR,0.00,49.00,VWS V14.01,2013-05-15 11:24:00,
2013-05-15 07:25:00,67.3,62.0,30.16,NE,36,3.0,3.0,83,0.00,,CLR,0.00,49.00,VWS V14.01,2013-05-15 11:25:00,
2013-05-15 07:29:00,68.6,62.2,30.16,ENE,65,2.0,3.0,80,0.00,,CLR,0.00,39.00,VWS V14.01,2013-05-15 11:29:00,
2013-05-15 07:30:00,68.6,62.2,30.16,ENE,65,2.0,3.0,80,0.00,,CLR,0.00,42.00,VWS V14.01,2013-05-15 11:30:00,
2013-05-15 07:34:00,69.9,62.4,30.16,NE,46,3.0,3.0,77,0.00,,CLR,0.00,53.00,VWS V14.01,2013-05-15 11:34:00,
2013-05-15 07:35:00,69.9,62.4,30.16,NE,46,3.0,3.0,77,0.00,,CLR,0.00,53.00,VWS V14.01,2013-05-15 11:35:00,
2013-05-15 07:39:00,70.9,62.6,30.16,NE,49,3.0,5.0,75,0.00,,CLR,0.00,49.00,VWS V14.01,2013-05-15 11:39:00,
2013-05-15 07:40:00,70.9,62.6,30.16,NE,49,3.0,5.0,75,0.00,,CLR,0.00,49.00,VWS V14.01,2013-05-15 11:40:00,
2013-05-15 07:44:00,71.7,62.6,30.16,NE,39,2.0,4.0,73,0.00,,CLR,0.00,47.00,VWS V14.01,2013-05-15 11:44:00,
2013-05-15 07:45:00,71.6,62.5,30.16,NE,37,2.0,4.0,73,0.00,,CLR,0.00,47.00,VWS V14.01,2013-05-15 11:45:00,
2013-05-15 07:49:00,72.2,62.7,30.16,NE,42,5.0,6.0,72,0.00,,FEW040,0.00,46.00,VWS V14.01,2013-05-15 11:49:00,
2013-05-15 07:50:00,72.2,62.7,30.16,NE,37,4.0,6.0,72,0.00,,CLR,0.00,46.00,VWS V14.01,2013-05-15 11:50:00,
2013-05-15 07:54:00,72.7,62.8,30.16,ENE,74,1.0,4.0,71,0.00,,FEW040,0.00,65.00,VWS V14.01,2013-05-15 11:54:00,
2013-05-15 07:55:00,72.7,62.8,30.16,East,92,3.0,4.0,71,0.00,,CLR,0.00,65.00,VWS V14.01,2013-05-15 11:55:00,
2013-05-15 07:59:00,73.1,62.7,30.17,NE,41,3.0,3.0,70,0.00,,FEW040,0.00,84.00,VWS V14.01,2013-05-15 11:59:00,
2013-05-15 08:00:00,73.0,62.7,30.16,NE,44,3.0,3.0,70,0.00,,CLR,0.00,84.00,VWS V14.01,2013-05-15 12:00:00,
2013-05-15 08:04:00,73.6,62.8,30.16,NE,45,3.0,7.0,69,0.00,,FEW040,0.00,264.00,VWS V14.01,2013-05-15 12:04:00,
2013-05-15 08:05:00,73.5,62.7,30.16,ESE,118,5.0,6.0,69,0.00,,CLR,0.00,264.00,VWS V14.01,2013-05-15 12:05:00,
2013-05-15 08:09:00,74.5,62.8,30.17,NE,36,2.0,6.0,67,0.00,,FEW040,0.00,232.00,VWS V14.01,2013-05-15 12:09:00,
2013-05-15 08:10:00,74.4,62.7,30.17,NE,49,4.0,9.0,67,0.00,,CLR,0.00,306.00,VWS V14.01,2013-05-15 12:10:00,
2013-05-15 08:15:00,75.3,63.2,30.17,NE,40,3.0,6.0,66,0.00,,FEW040,0.00,272.00,VWS V14.01,2013-05-15 12:15:00,
2013-05-15 08:20:00,75.7,62.2,30.17,ESE,111,3.0,9.0,63,0.00,,FEW040,0.00,244.00,VWS V14.01,2013-05-15 12:20:00,
2013-05-15 08:25:00,75.8,62.3,30.17,NE,49,3.0,6.0,63,0.00,,FEW040,0.00,209.00,VWS V14.01,2013-05-15 12:25:00,
2013-05-15 08:30:00,76.2,62.2,30.17,NE,42,3.0,5.0,62,0.00,,FEW040,0.00,169.00,VWS V14.01,2013-05-15 12:30:00,
2013-05-15 08:35:00,76.0,61.6,30.17,NE,36,3.0,5.0,61,0.00,,FEW040,0.00,165.00,VWS V14.01,2013-05-15 12:35:00,
2013-05-15 08:40:00,76.0,61.6,30.18,ENE,75,7.0,9.0,61,0.00,,FEW040,0.00,229.00,VWS V14.01,2013-05-15 12:40:00,
2013-05-15 08:45:00,76.7,61.8,30.17,NE,44,7.0,10.0,60,0.00,,FEW040,0.00,461.00,VWS V14.01,2013-05-15 12:45:00,
2013-05-15 08:50:00,77.2,61.8,30.17,NE,36,11.0,14.0,59,0.00,,FEW040,0.00,376.00,VWS V14.01,2013-05-15 12:50:00,
2013-05-15 08:55:00,76.8,60.9,30.18,ENE,70,5.0,8.0,58,0.00,,FEW040,0.00,83.00,VWS V14.01,2013-05-15 12:55:00,
2013-05-15 09:00:00,76.5,60.6,30.18,NNE,30,5.0,8.0,58,0.00,,CLR,0.00,171.00,VWS V14.01,2013-05-15 13:00:00,
2013-05-15 09:01:00,76.3,60.9,30.18,ENE,63,4.0,6.0,59,0.00,,FEW040,0.00,171.00,VWS V14.01,2013-05-15 13:01:00,
2013-05-15 09:05:00,76.3,61.4,30.18,ESE,115,2.0,6.0,60,0.00,,CLR,0.00,320.00,VWS V14.01,2013-05-15 13:05:00,
2013-05-15 09:06:00,76.5,61.1,30.18,NE,36,6.0,8.0,59,0.00,,FEW040,0.00,320.00,VWS V14.01,2013-05-15 13:06:00,
2013-05-15 09:10:00,76.9,61.5,30.18,NE,42,4.0,9.0,59,0.00,,CLR,0.00,548.00,VWS V14.01,2013-05-15 13:10:00,
2013-05-15 09:11:00,77.2,60.8,30.18,NE,40,7.0,14.0,57,0.00,,FEW040,0.00,538.00,VWS V14.01,2013-05-15 13:11:00,
2013-05-15 09:15:00,77.3,60.4,30.18,NE,41,5.0,10.0,56,0.00,,CLR,0.00,181.00,VWS V14.01,2013-05-15 13:15:00,
2013-05-15 09:16:00,77.1,60.2,30.19,NE,49,1.0,5.0,56,0.00,,FEW040,0.00,186.00,VWS V14.01,2013-05-15 13:16:00,
2013-05-15 09:20:00,76.9,60.0,30.19,East,95,3.0,5.0,56,0.00,,CLR,0.00,594.00,VWS V14.01,2013-05-15 13:20:00,
2013-05-15 09:21:00,77.3,60.4,30.19,NNE,30,6.0,11.0,56,0.00,,FEW040,0.00,642.00,VWS V14.01,2013-05-15 13:21:00,
2013-05-15 09:25:00,77.8,60.9,30.19,NE,47,7.0,8.0,56,0.00,,CLR,0.00,652.00,VWS V14.01,2013-05-15 13:25:00,
2013-05-15 09:26:00,78.1,60.6,30.19,NE,50,5.0,10.0,55,0.00,,FEW040,0.00,652.00,VWS V14.01,2013-05-15 13:26:00,
2013-05-15 09:30:00,78.2,60.7,30.19,ENE,66,7.0,9.0,55,0.00,,CLR,0.00,540.00,VWS V14.01,2013-05-15 13:30:00,
2013-05-15 09:31:00,78.1,60.6,30.18,ESE,121,8.0,10.0,55,0.00,,FEW040,0.00,279.00,VWS V14.01,2013-05-15 13:31:00,
2013-05-15 09:35:00,78.3,60.8,30.19,NE,40,6.0,9.0,55,0.00,,CLR,0.00,635.00,VWS V14.01,2013-05-15 13:35:00,
2013-05-15 09:36:00,78.5,60.5,30.18,NNE,15,7.0,9.0,54,0.00,,BKN049,0.00,540.00,VWS V14.01,2013-05-15 13:36:00,
2013-05-15 09:40:00,78.7,60.7,30.19,NE,42,10.0,11.0,54,0.00,,CLR,0.00,617.00,VWS V14.01,2013-05-15 13:40:00,
2013-05-15 09:41:00,78.8,60.8,30.18,NE,38,9.0,12.0,54,0.00,,BKN049,0.00,715.00,VWS V14.01,2013-05-15 13:41:00,
2013-05-15 09:45:00,79.0,60.4,30.18,East,90,5.0,6.0,53,0.00,,CLR,0.00,731.00,VWS V14.01,2013-05-15 13:45:00,
2013-05-15 09:46:00,79.3,60.7,30.18,NE,46,5.0,7.0,53,0.00,,BKN049,0.00,745.00,VWS V14.01,2013-05-15 13:46:00,
2013-05-15 09:50:00,79.5,60.9,30.18,ENE,68,4.0,11.0,53,0.00,,CLR,0.00,714.00,VWS V14.01,2013-05-15 13:50:00,
2013-05-15 09:51:00,79.5,60.3,30.18,ENE,73,5.0,11.0,52,0.00,,BKN049,0.00,211.00,VWS V14.01,2013-05-15 13:51:00,
2013-05-15 09:55:00,79.2,60.1,30.18,East,91,5.0,11.0,52,0.00,,CLR,0.00,206.00,VWS V14.01,2013-05-15 13:55:00,
2013-05-15 09:56:00,78.7,60.2,30.19,ENE,65,4.0,8.0,53,0.00,,BKN049,0.00,216.00,VWS V14.01,2013-05-15 13:56:00,
2013-05-15 10:00:00,78.5,60.0,30.19,SSE,153,5.0,7.0,53,0.00,,CLR,0.00,216.00,VWS V14.01,2013-05-15 14:00:00,
2013-05-15 10:01:00,78.3,59.8,30.19,NE,41,5.0,13.0,53,0.00,,BKN049,0.00,348.00,VWS V14.01,2013-05-15 14:01:00,
2013-05-15 10:05:00,78.3,60.8,30.19,East,97,3.0,8.0,55,0.00,,CLR,0.00,348.00,VWS V14.01,2013-05-15 14:05:00,
2013-05-15 10:07:00,78.2,60.2,30.19,ENE,73,7.0,8.0,54,0.00,,BKN049,0.00,281.00,VWS V14.01,2013-05-15 14:07:00,
2013-05-15 10:10:00,78.3,60.8,30.19,NE,36,6.0,7.0,55,0.00,,CLR,0.00,364.00,VWS V14.01,2013-05-15 14:10:00,
2013-05-15 10:12:00,78.8,60.8,30.19,NE,36,8.0,15.0,54,0.00,,BKN049,0.00,842.00,VWS V14.01,2013-05-15 14:12:00,
2013-05-15 10:15:00,79.2,61.7,30.19,ESE,121,2.0,7.0,55,0.00,,CLR,0.00,281.00,VWS V14.01,2013-05-15 14:15:00,
2013-05-15 10:17:00,79.3,60.7,30.19,ENE,74,1.0,6.0,53,0.00,,BKN049,0.00,301.00,VWS V14.01,2013-05-15 14:17:00,
2013-05-15 10:20:00,79.4,61.8,30.19,NE,34,11.0,11.0,55,0.00,,CLR,0.00,893.00,VWS V14.01,2013-05-15 14:20:00,
2013-05-15 10:22:00,79.8,60.6,30.19,East,96,6.0,10.0,52,0.00,,BKN049,0.00,877.00,VWS V14.01,2013-05-15 14:22:00,
2013-05-15 10:25:00,79.7,61.1,30.19,SE,132,5.0,9.0,53,0.00,,CLR,0.00,237.00,VWS V14.01,2013-05-15 14:25:00,
2013-05-15 10:27:00,79.3,60.7,30.19,NE,40,5.0,10.0,53,0.00,,BKN049,0.00,290.00,VWS V14.01,2013-05-15 14:27:00,
2013-05-15 10:30:00,79.3,61.8,30.19,NE,44,1.0,8.0,55,0.00,,CLR,0.00,290.00,VWS V14.01,2013-05-15 14:30:00,
2013-05-15 10:32:00,80.0,62.9,30.19,NE,43,6.0,9.0,56,0.00,,BKN049,0.00,944.00,VWS V14.01,2013-05-15 14:32:00,
2013-05-15 10:35:00,80.2,61.0,30.19,NE,49,7.0,12.0,52,0.00,,CLR,0.00,397.00,VWS V14.01,2013-05-15 14:35:00,
2013-05-15 10:37:00,80.0,60.8,30.19,NE,52,3.0,6.0,52,0.00,,BKN049,0.00,397.00,VWS V14.01,2013-05-15 14:37:00,
2013-05-15 10:40:00,80.0,61.3,30.19,ENE,63,3.0,7.0,53,0.00,,CLR,0.00,397.00,VWS V14.01,2013-05-15 14:40:00,
2013-05-15 10:42:00,80.5,62.9,30.19,NNE,32,7.0,12.0,55,0.00,,BKN049,0.00,907.00,VWS V14.01,2013-05-15 14:42:00,
2013-05-15 10:45:00,80.9,61.6,30.19,SE,128,2.0,12.0,52,0.00,,CLR,0.00,918.00,VWS V14.01,2013-05-15 14:45:00,
2013-05-15 10:47:00,81.4,62.1,30.19,ENE,65,5.0,10.0,52,0.00,,BKN047,0.00,923.00,VWS V14.01,2013-05-15 14:47:00,
2013-05-15 10:50:00,81.5,61.7,30.19,NE,46,3.0,5.0,51,0.00,,CLR,0.00,918.00,VWS V14.01,2013-05-15 14:50:00,
2013-05-15 10:52:00,81.2,61.4,30.19,NNE,26,7.0,10.0,51,0.00,,BKN047,0.00,902.00,VWS V14.01,2013-05-15 14:52:00,
2013-05-15 10:55:00,80.9,61.1,30.19,East,96,3.0,10.0,51,0.00,,CLR,0.00,213.00,VWS V14.01,2013-05-15 14:55:00,
2013-05-15 10:57:00,80.0,60.8,30.19,NE,44,1.0,6.0,52,0.00,,BKN047,0.00,193.00,VWS V14.01,2013-05-15 14:57:00,
2013-05-15 11:00:00,79.7,61.1,30.19,NNE,32,6.0,6.0,53,0.00,,CLR,0.00,211.00,VWS V14.01,2013-05-15 15:00:00,
2013-05-15 11:02:00,79.7,62.6,30.19,NE,49,6.0,9.0,56,0.00,,BKN047,0.00,979.00,VWS V14.01,2013-05-15 15:02:00,
2013-05-15 11:05:00,80.0,62.9,30.19,ENE,67,2.0,7.0,56,0.00,,CLR,0.00,979.00,VWS V14.01,2013-05-15 15:05:00,
2013-05-15 11:08:00,80.9,62.7,30.19,ENE,71,2.0,9.0,54,0.00,,BKN047,0.00,1004.00,VWS V14.01,2013-05-15 15:08:00,
2013-05-15 11:10:00,81.0,62.3,30.19,ENE,70,5.0,10.0,53,0.00,,CLR,0.00,1004.00,VWS V14.01,2013-05-15 15:10:00,
2013-05-15 11:13:00,80.7,62.0,30.19,East,96,8.0,8.0,53,0.00,,BKN047,0.00,290.00,VWS V14.01,2013-05-15 15:13:00,
2013-05-15 11:15:00,80.5,61.8,30.19,East,84,2.0,8.0,53,0.00,,CLR,0.00,311.00,VWS V14.01,2013-05-15 15:15:00,
2013-05-15 11:18:00,79.7,62.1,30.20,NE,35,5.0,12.0,55,0.00,,BKN047,0.00,814.00,VWS V14.01,2013-05-15 15:18:00,
2013-05-15 11:20:00,79.7,62.1,30.20,NNE,32,11.0,11.0,55,0.00,,CLR,0.00,814.00,VWS V14.01,2013-05-15 15:20:00,
2013-05-15 11:23:00,79.5,61.4,30.20,NE,42,5.0,7.0,54,0.00,,BKN047,0.00,1130.00,VWS V14.01,2013-05-15 15:23:00,
2013-05-15 11:25:00,79.5,61.4,30.20,NE,44,5.0,8.0,54,0.00,,CLR,0.00,1130.00,VWS V14.01,2013-05-15 15:25:00,
2013-05-15 11:29:00,79.9,62.3,30.19,ENE,66,11.0,11.0,55,0.00,,BKN047,0.00,536.00,VWS V14.01,2013-05-15 15:29:00,
2013-05-15 11:30:00,79.9,62.3,30.19,NE,36,9.0,11.0,55,0.00,,CLR,0.00,536.00,VWS V14.01,2013-05-15 15:30:00,
2013-05-15 11:34:00,79.4,61.8,30.19,NE,46,5.0,10.0,55,0.00,,BKN047,0.00,320.00,VWS V14.01,2013-05-15 15:34:00,
2013-05-15 11:35:00,79.3,61.8,30.19,NE,51,5.0,8.0,55,0.00,,CLR,0.00,320.00,VWS V14.01,2013-05-15 15:35:00,
2013-05-15 11:39:00,78.9,61.4,30.19,SSE,150,5.0,11.0,55,0.00,,BKN047,0.00,332.00,VWS V14.01,2013-05-15 15:39:00,
2013-05-15 11:40:00,78.9,61.9,30.19,East,90,6.0,11.0,56,0.00,,CLR,0.00,332.00,VWS V14.01,2013-05-15 15:40:00,
2013-05-15 11:44:00,79.2,62.7,30.20,NE,38,14.0,14.0,57,0.00,,BKN047,0.00,327.00,VWS V14.01,2013-05-15 15:44:00,
2013-05-15 11:45:00,79.2,62.7,30.20,NE,38,14.0,14.0,57,0.00,,CLR,0.00,327.00,VWS V14.01,2013-05-15 15:45:00,
2013-05-15 11:49:00,80.2,62.1,30.19,ENE,70,4.0,8.0,54,0.00,,BKN049,0.00,1055.00,VWS V14.01,2013-05-15 15:49:00,
2013-05-15 11:50:00,80.2,62.1,30.19,ENE,70,4.0,8.0,54,0.00,,CLR,0.00,1055.00,VWS V14.01,2013-05-15 15:50:00,
2013-05-15 11:54:00,81.0,61.7,30.19,ENE,70,4.0,9.0,52,0.00,,BKN049,0.00,1081.00,VWS V14.01,2013-05-15 15:54:00,
2013-05-15 11:55:00,81.0,61.7,30.19,ENE,70,4.0,9.0,52,0.00,,CLR,0.00,1081.00,VWS V14.01,2013-05-15 15:55:00,
2013-05-15 11:59:00,81.5,62.7,30.19,NE,46,4.0,9.0,53,0.00,,BKN049,0.00,1076.00,VWS V14.01,2013-05-15 15:59:00,
2013-05-15 12:00:00,81.5,62.7,30.19,NE,46,4.0,9.0,53,0.00,,CLR,0.00,1076.00,VWS V14.01,2013-05-15 16:00:00,
2013-05-15 12:04:00,81.2,61.9,30.19,NE,49,7.0,11.0,52,0.00,,BKN049,0.00,441.00,VWS V14.01,2013-05-15 16:04:00,
2013-05-15 12:05:00,81.2,61.9,30.19,NE,46,8.0,11.0,52,0.00,,CLR,0.00,244.00,VWS V14.01,2013-05-15 16:05:00,
2013-05-15 12:09:00,81.4,62.1,30.19,ENE,66,7.0,16.0,52,0.00,,BKN049,0.00,1116.00,VWS V14.01,2013-05-15 16:09:00,
2013-05-15 12:10:00,81.4,62.1,30.19,NE,48,8.0,16.0,52,0.00,,CLR,0.00,1116.00,VWS V14.01,2013-05-15 16:10:00,
2013-05-15 12:14:00,82.2,63.4,30.19,NE,40,6.0,12.0,53,0.00,,BKN049,0.00,977.00,VWS V14.01,2013-05-15 16:14:00,
2013-05-15 12:15:00,82.1,63.3,30.18,NE,44,8.0,12.0,53,0.00,,CLR,0.00,1141.00,VWS V14.01,2013-05-15 16:15:00,
2013-05-15 12:19:00,82.5,63.7,30.19,East,86,7.0,12.0,53,0.00,,BKN049,0.00,1164.00,VWS V14.01,2013-05-15 16:19:00,
2013-05-15 12:20:00,82.4,63.0,30.19,ENE,70,7.0,12.0,52,0.00,,CLR,0.00,1164.00,VWS V14.01,2013-05-15 16:20:00,
2013-05-15 12:24:00,82.1,62.8,30.19,East,93,5.0,9.0,52,0.00,,BKN049,0.00,338.00,VWS V14.01,2013-05-15 16:24:00,
2013-05-15 12:25:00,82.2,62.3,30.19,NE,39,8.0,9.0,51,0.00,,CLR,0.00,338.00,VWS V14.01,2013-05-15 16:25:00,
2013-05-15 12:29:00,82.2,62.8,30.19,NE,37,6.0,9.0,52,0.00,,BKN049,0.00,1227.00,VWS V14.01,2013-05-15 16:29:00,
2013-05-15 12:30:00,82.2,62.8,30.19,NE,49,6.0,9.0,52,0.00,,CLR,0.00,1227.00,VWS V14.01,2013-05-15 16:30:00,
2013-05-15 12:34:00,81.7,62.4,30.19,NE,42,11.0,11.0,52,0.00,,BKN049,0.00,1209.00,VWS V14.01,2013-05-15 16:34:00,
2013-05-15 12:35:00,81.7,62.4,30.19,NE,52,6.0,8.0,52,0.00,,CLR,0.00,1209.00,VWS V14.01,2013-05-15 16:35:00,
2013-05-15 12:39:00,81.7,62.4,30.19,NNE,20,3.0,11.0,52,0.00,,BKN049,0.00,309.00,VWS V14.01,2013-05-15 16:39:00,
2013-05-15 12:40:00,81.8,62.5,30.19,NE,45,8.0,13.0,52,0.00,,CLR,0.00,309.00,VWS V14.01,2013-05-15 16:40:00,
2013-05-15 12:44:00,81.6,62.3,30.19,NE,36,6.0,7.0,52,0.00,,BKN049,0.00,285.00,VWS V14.01,2013-05-15 16:44:00,
2013-05-15 12:45:00,81.7,62.4,30.19,ENE,69,4.0,10.0,52,0.00,,CLR,0.00,274.00,VWS V14.01,2013-05-15 16:45:00,
2013-05-15 12:49:00,80.9,63.8,30.19,East,97,6.0,16.0,56,0.00,,BKN049,0.00,1229.00,VWS V14.01,2013-05-15 16:49:00,
2013-05-15 12:50:00,80.8,63.7,30.19,ENE,62,7.0,14.0,56,0.00,,CLR,0.00,373.00,VWS V14.01,2013-05-15 16:50:00,
2013-05-15 12:54:00,81.2,63.0,30.18,ENE,67,9.0,14.0,54,0.00,,BKN049,0.00,1134.00,VWS V14.01,2013-05-15 16:54:00,
2013-05-15 12:55:00,81.2,63.5,30.18,NE,48,3.0,14.0,55,0.00,,CLR,0.00,1111.00,VWS V14.01,2013-05-15 16:55:00,
2013-05-15 12:59:00,81.1,62.4,30.18,NNE,23,6.0,12.0,53,0.00,,BKN049,0.00,243.00,VWS V14.01,2013-05-15 16:59:00,
2013-05-15 13:00:00,81.3,62.0,30.19,NE,44,8.0,14.0,52,0.00,,CLR,0.00,243.00,VWS V14.01,2013-05-15 17:00:00,
2013-05-15 13:05:00,80.4,62.2,30.18,NNE,29,6.0,13.0,54,0.00,,BKN049,0.00,322.00,VWS V14.01,2013-05-15 17:05:00,
2013-05-15 13:10:00,80.3,62.7,30.18,NE,37,10.0,14.0,55,0.00,,BKN049,0.00,652.00,VWS V14.01,2013-05-15 17:10:00,
2013-05-15 13:15:00,81.6,63.4,30.18,ESE,111,9.0,11.0,54,0.00,,BKN049,0.00,1230.00,VWS V14.01,2013-05-15 17:15:00,
2013-05-15 13:20:00,81.9,62.6,30.17,NE,42,13.0,14.0,52,0.00,,BKN049,0.00,1167.00,VWS V14.01,2013-05-15 17:20:00,
2013-05-15 13:25:00,82.4,64.1,30.18,ESE,110,5.0,7.0,54,0.00,,BKN049,0.00,1195.00,VWS V14.01,2013-05-15 17:25:00,
2013-05-15 13:30:00,82.1,62.8,30.18,NE,46,6.0,17.0,52,0.00,,BKN049,0.00,309.00,VWS V14.01,2013-05-15 17:30:00,
2013-05-15 13:35:00,81.6,62.3,30.17,NE,37,5.0,8.0,52,0.00,,BKN049,0.00,396.00,VWS V14.01,2013-05-15 17:35:00,
2013-05-15 13:40:00,81.4,62.1,30.17,NE,42,7.0,10.0,52,0.00,,BKN049,0.00,1243.00,VWS V14.01,2013-05-15 17:40:00,
2013-05-15 13:45:00,81.1,62.4,30.17,East,94,5.0,9.0,53,0.00,,BKN055,0.00,401.00,VWS V14.01,2013-05-15 17:45:00,
2013-05-15 13:50:00,80.9,62.7,30.17,NE,39,9.0,12.0,54,0.00,,BKN055,0.00,401.00,VWS V14.01,2013-05-15 17:50:00,
2013-05-15 13:55:00,81.6,62.8,30.17,ESE,118,5.0,13.0,53,0.00,,BKN055,0.00,1230.00,VWS V14.01,2013-05-15 17:55:00,
2013-05-15 14:00:00,81.4,63.2,30.17,NNE,30,7.0,15.0,54,0.00,,BKN055,0.00,1202.00,VWS V14.01,2013-05-15 18:00:00,
2013-05-15 14:05:00,80.8,62.1,30.17,NE,36,2.0,10.0,53,0.00,,BKN055,0.00,1160.00,VWS V14.01,2013-05-15 18:05:00,
2013-05-15 14:10:00,80.6,61.4,30.17,ENE,74,7.0,15.0,52,0.00,,BKN055,0.00,230.00,VWS V14.01,2013-05-15 18:10:00,
2013-05-15 14:15:00,80.7,62.0,30.17,NE,42,8.0,12.0,53,0.00,,CLR,0.00,1039.00,VWS V14.01,2013-05-15 18:15:00,
2013-05-15 14:16:00,81.0,62.3,30.17,NNE,26,12.0,16.0,53,0.00,,BKN055,0.00,1113.00,VWS V14.01,2013-05-15 18:16:00,
2013-05-15 14:20:00,81.0,61.2,30.17,NNE,24,8.0,16.0,51,0.00,,CLR,0.00,236.00,VWS V14.01,2013-05-15 18:20:00,
2013-05-15 14:21:00,81.1,62.4,30.17,ESE,121,4.0,14.0,53,0.00,,BKN055,0.00,1095.00,VWS V14.01,2013-05-15 18:21:00,
2013-05-15 14:25:00,81.5,62.7,30.16,East,88,5.0,8.0,53,0.00,,CLR,0.00,1107.00,VWS V14.01,2013-05-15 18:25:00,
2013-05-15 14:26:00,81.6,61.7,30.16,SE,126,4.0,6.0,51,0.00,,BKN055,0.00,274.00,VWS V14.01,2013-05-15 18:26:00,
2013-05-15 14:30:00,81.8,61.4,30.16,East,88,9.0,9.0,50,0.00,,CLR,0.00,1081.00,VWS V14.01,2013-05-15 18:30:00,
2013-05-15 14:31:00,81.8,60.2,30.16,ENE,69,4.0,8.0,48,0.00,,BKN055,0.00,181.00,VWS V14.01,2013-05-15 18:31:00,
2013-05-15 14:35:00,81.4,61.5,30.16,NE,39,6.0,10.0,51,0.00,,CLR,0.00,195.00,VWS V14.01,2013-05-15 18:35:00,
2013-05-15 14:36:00,81.4,62.6,30.16,ENE,70,11.0,11.0,53,0.00,,BKN055,0.00,1058.00,VWS V14.01,2013-05-15 18:36:00,
2013-05-15 14:40:00,81.8,63.0,30.16,NE,48,3.0,11.0,53,0.00,,CLR,0.00,1034.00,VWS V14.01,2013-05-15 18:40:00,
2013-05-15 14:41:00,82.0,63.7,30.16,NNE,26,6.0,9.0,54,0.00,,BKN055,0.00,1046.00,VWS V14.01,2013-05-15 18:41:00,
2013-05-15 14:45:00,82.2,62.3,30.16,NE,50,5.0,14.0,51,0.00,,CLR,0.00,1063.00,VWS V14.01,2013-05-15 18:45:00,
2013-05-15 14:46:00,82.5,63.1,30.16,NE,50,5.0,11.0,52,0.00,,BKN048,0.00,1074.00,VWS V14.01,2013-05-15 18:46:00,
2013-05-15 14:50:00,82.4,62.5,30.15,NE,39,4.0,8.0,51,0.00,,CLR,0.00,218.00,VWS V14.01,2013-05-15 18:50:00,
2013-05-15 14:51:00,81.8,61.9,30.15,East,86,3.0,10.0,51,0.00,,BKN048,0.00,1005.00,VWS V14.01,2013-05-15 18:51:00,
2013-05-15 14:55:00,81.8,64.1,30.15,NE,40,15.0,15.0,55,0.00,,CLR,0.00,1048.00,VWS V14.01,2013-05-15 18:55:00,
2013-05-15 14:57:00,82.1,62.8,30.15,East,88,8.0,8.0,52,0.00,,BKN048,0.00,1088.00,VWS V14.01,2013-05-15 18:57:00,
2013-05-15 15:00:00,82.1,62.8,30.15,ENE,76,7.0,15.0,52,0.00,,CLR,0.00,1088.00,VWS V14.01,2013-05-15 19:00:00,
2013-05-15 15:02:00,81.7,62.9,30.15,ENE,63,5.0,10.0,53,0.00,,BKN048,0.00,1025.00,VWS V14.01,2013-05-15 19:02:00,
2013-05-15 15:05:00,81.8,63.5,30.15,East,95,8.0,9.0,54,0.00,,CLR,0.00,1034.00,VWS V14.01,2013-05-15 19:05:00,
2013-05-15 15:07:00,82.1,63.8,30.15,ENE,67,5.0,9.0,54,0.00,,BKN048,0.00,1071.00,VWS V14.01,2013-05-15 19:07:00,
2013-05-15 15:10:00,82.3,62.9,30.15,NNE,30,7.0,12.0,52,0.00,,CLR,0.00,200.00,VWS V14.01,2013-05-15 19:10:00,
2013-05-15 15:12:00,81.8,63.5,30.15,NNE,31,6.0,9.0,54,0.00,,BKN048,0.00,292.00,VWS V14.01,2013-05-15 19:12:00,
2013-05-15 15:15:00,81.7,64.5,30.15,East,86,6.0,9.0,56,0.00,,CLR,0.00,1042.00,VWS V14.01,2013-05-15 19:15:00,
2013-05-15 15:17:00,81.9,64.2,30.15,NE,36,5.0,12.0,55,0.00,,BKN048,0.00,1035.00,VWS V14.01,2013-05-15 19:17:00,
2013-05-15 15:20:00,82.3,64.5,30.15,NNE,28,7.0,14.0,55,0.00,,CLR,0.00,1005.00,VWS V14.01,2013-05-15 19:20:00,
2013-05-15 15:22:00,82.4,64.6,30.14,ENE,73,2.0,7.0,55,0.00,,BKN048,0.00,1013.00,VWS V14.01,2013-05-15 19:22:00,
2013-05-15 15:25:00,82.4,64.1,30.14,NE,35,6.0,10.0,54,0.00,,CLR,0.00,1044.00,VWS V14.01,2013-05-15 19:25:00,
2013-05-15 15:27:00,82.1,64.3,30.14,East,92,9.0,11.0,55,0.00,,BKN048,0.00,330.00,VWS V14.01,2013-05-15 19:27:00,
2013-05-15 15:30:00,81.8,63.5,30.14,ESE,119,7.0,13.0,54,0.00,,CLR,0.00,227.00,VWS V14.01,2013-05-15 19:30:00,
2013-05-15 15:32:00,80.9,63.8,30.14,NNE,32,9.0,11.0,56,0.00,,BKN048,0.00,220.00,VWS V14.01,2013-05-15 19:32:00,
2013-05-15 15:35:00,80.6,64.5,30.14,NE,46,8.0,10.0,58,0.00,,CLR,0.00,220.00,VWS V14.01,2013-05-15 19:35:00,
2013-05-15 15:37:00,80.6,64.0,30.14,NE,39,4.0,8.0,57,0.00,,BKN048,0.00,285.00,VWS V14.01,2013-05-15 19:37:00,
2013-05-15 15:40:00,80.6,64.0,30.14,NE,44,5.0,13.0,57,0.00,,CLR,0.00,346.00,VWS V14.01,2013-05-15 19:40:00,
2013-05-15 15:42:00,81.0,64.3,30.14,ENE,66,2.0,14.0,57,0.00,,BKN048,0.00,292.00,VWS V14.01,2013-05-15 19:42:00,
2013-05-15 15:45:00,81.2,64.5,30.14,South,184,5.0,12.0,57,0.00,,CLR,0.00,1004.00,VWS V14.01,2013-05-15 19:45:00,
2013-05-15 15:47:00,81.2,63.5,30.14,ENE,69,4.0,8.0,55,0.00,,FEW045,0.00,165.00,VWS V14.01,2013-05-15 19:47:00,
2013-05-15 15:50:00,80.9,63.8,30.14,ENE,74,4.0,10.0,56,0.00,,CLR,0.00,160.00,VWS V14.01,2013-05-15 19:50:00,
2013-05-15 15:52:00,80.4,64.3,30.13,ESE,113,4.0,8.0,58,0.00,,FEW045,0.00,884.00,VWS V14.01,2013-05-15 19:52:00,
2013-05-15 15:55:00,80.6,65.0,30.13,NE,39,4.0,10.0,59,0.00,,CLR,0.00,974.00,VWS V14.01,2013-05-15 19:55:00,
2013-05-15 15:57:00,80.8,63.7,30.13,NNE,30,5.0,17.0,56,0.00,,FEW045,0.00,229.00,VWS V14.01,2013-05-15 19:57:00,
2013-05-15 16:00:00,80.6,63.5,30.13,ENE,71,9.0,13.0,56,0.00,,CLR,0.00,234.00,VWS V14.01,2013-05-15 20:00:00,
2013-05-15 16:02:00,80.2,64.1,30.12,ESE,108,5.0,15.0,58,0.00,,FEW045,0.00,963.00,VWS V14.01,2013-05-15 20:02:00,
2013-05-15 16:05:00,80.3,64.7,30.12,NE,42,4.0,8.0,59,0.00,,CLR,0.00,933.00,VWS V14.01,2013-05-15 20:05:00,
2013-05-15 16:08:00,81.2,65.0,30.12,ENE,67,9.0,11.0,58,0.00,,FEW045,0.00,907.00,VWS V14.01,2013-05-15 20:08:00,
2013-05-15 16:10:00,81.3,64.6,30.12,SSE,149,4.0,11.0,57,0.00,,CLR,0.00,907.00,VWS V14.01,2013-05-15 20:10:00,
2013-05-15 16:13:00,81.4,64.2,30.12,NNE,33,7.0,12.0,56,0.00,,FEW045,0.00,882.00,VWS V14.01,2013-05-15 20:13:00,
2013-05-15 16:15:00,81.5,64.8,30.12,NNE,30,6.0,8.0,57,0.00,,CLR,0.00,905.00,VWS V14.01,2013-05-15 20:15:00,
2013-05-15 16:18:00,81.7,63.5,30.12,NE,37,11.0,18.0,54,0.00,,FEW045,0.00,193.00,VWS V14.01,2013-05-15 20:18:00,
2013-05-15 16:20:00,81.5,63.3,30.12,NE,44,12.0,18.0,54,0.00,,CLR,0.00,188.00,VWS V14.01,2013-05-15 20:20:00,
2013-05-15 16:23:00,80.8,64.2,30.11,NE,47,11.0,13.0,57,0.00,,FEW045,0.00,881.00,VWS V14.01,2013-05-15 20:23:00,
2013-05-15 16:25:00,80.8,64.2,30.11,NE,38,7.0,13.0,57,0.00,,CLR,0.00,881.00,VWS V14.01,2013-05-15 20:25:00,
2013-05-15 16:28:00,80.5,63.9,30.12,ENE,66,5.0,10.0,57,0.00,,FEW045,0.00,842.00,VWS V14.01,2013-05-15 20:28:00,
2013-05-15 16:30:00,80.4,63.8,30.12,ENE,68,4.0,8.0,57,0.00,,CLR,0.00,765.00,VWS V14.01,2013-05-15 20:30:00,
2013-05-15 16:33:00,80.3,64.2,30.11,NE,46,6.0,11.0,58,0.00,,FEW045,0.00,276.00,VWS V14.01,2013-05-15 20:33:00,
2013-05-15 16:35:00,80.3,64.2,30.11,NE,40,8.0,11.0,58,0.00,,CLR,0.00,318.00,VWS V14.01,2013-05-15 20:35:00,
2013-05-15 16:38:00,79.9,63.8,30.12,NE,42,6.0,13.0,58,0.00,,FEW045,0.00,211.00,VWS V14.01,2013-05-15 20:38:00,
2013-05-15 16:40:00,79.8,63.7,30.12,ENE,69,7.0,11.0,58,0.00,,CLR,0.00,211.00,VWS V14.01,2013-05-15 20:40:00,
2013-05-15 16:43:00,79.1,64.0,30.11,NE,40,7.0,8.0,60,0.00,,SCT041,0.00,207.00,VWS V14.01,2013-05-15 20:43:00,
2013-05-15 16:45:00,79.0,63.9,30.11,NE,38,2.0,8.0,60,0.00,,CLR,0.00,207.00,VWS V14.01,2013-05-15 20:45:00,
2013-05-15 16:48:00,79.2,64.1,30.12,NE,44,9.0,15.0,60,0.00,,SCT041,0.00,768.00,VWS V14.01,2013-05-15 20:48:00,
2013-05-15 16:50:00,79.3,64.2,30.12,East,86,6.0,14.0,60,0.00,,CLR,0.00,165.00,VWS V14.01,2013-05-15 20:50:00,
2013-05-15 16:53:00,79.1,64.0,30.11,NE,36,9.0,13.0,60,0.00,,SCT041,0.00,163.00,VWS V14.01,2013-05-15 20:53:00,
2013-05-15 16:55:00,79.1,64.0,30.11,East,84,6.0,10.0,60,0.00,,CLR,0.00,163.00,VWS V14.01,2013-05-15 20:55:00,
2013-05-15 16:58:00,79.7,64.1,30.11,NE,39,12.0,14.0,59,0.00,,SCT041,0.00,715.00,VWS V14.01,2013-05-15 20:58:00,
2013-05-15 17:00:00,79.8,64.2,30.11,NNE,28,8.0,14.0,59,0.00,,CLR,0.00,701.00,VWS V14.01,2013-05-15 21:00:00,
2013-05-15 17:03:00,79.6,64.0,30.11,NE,51,6.0,11.0,59,0.00,,SCT041,0.00,100.00,VWS V14.01,2013-05-15 21:03:00,
2013-05-15 17:05:00,79.5,63.9,30.11,ENE,70,3.0,9.0,59,0.00,,CLR,0.00,104.00,VWS V14.01,2013-05-15 21:05:00,
2013-05-15 17:08:00,78.9,63.8,30.11,NE,40,4.0,9.0,60,0.00,,SCT041,0.00,167.00,VWS V14.01,2013-05-15 21:08:00,
2013-05-15 17:10:00,78.9,64.3,30.11,NNE,32,7.0,12.0,61,0.00,,CLR,0.00,624.00,VWS V14.01,2013-05-15 21:10:00,
2013-05-15 17:13:00,79.4,64.3,30.11,NE,46,12.0,12.0,60,0.00,,SCT041,0.00,647.00,VWS V14.01,2013-05-15 21:13:00,
2013-05-15 17:15:00,79.4,63.8,30.11,NE,37,11.0,12.0,59,0.00,,CLR,0.00,647.00,VWS V14.01,2013-05-15 21:15:00,
2013-05-15 17:18:00,79.6,63.5,30.11,East,93,15.0,15.0,58,0.00,,SCT041,0.00,635.00,VWS V14.01,2013-05-15 21:18:00,
2013-05-15 17:20:00,79.6,63.5,30.11,ENE,76,4.0,15.0,58,0.00,,CLR,0.00,635.00,VWS V14.01,2013-05-15 21:20:00,
2013-05-15 17:23:00,79.4,63.8,30.11,ESE,111,7.0,7.0,59,0.00,,SCT041,0.00,636.00,VWS V14.01,2013-05-15 21:23:00,
2013-05-15 17:25:00,79.4,63.8,30.11,SE,133,5.0,8.0,59,0.00,,CLR,0.00,636.00,VWS V14.01,2013-05-15 21:25:00,
2013-05-15 17:28:00,79.4,64.3,30.11,NNE,28,10.0,17.0,60,0.00,,SCT041,0.00,610.00,VWS V14.01,2013-05-15 21:28:00,
2013-05-15 17:30:00,79.4,64.3,30.11,ENE,67,10.0,17.0,60,0.00,,CLR,0.00,610.00,VWS V14.01,2013-05-15 21:30:00,
2013-05-15 17:33:00,79.5,64.4,30.11,ESE,115,2.0,9.0,60,0.00,,SCT041,0.00,592.00,VWS V14.01,2013-05-15 21:33:00,
2013-05-15 17:35:00,79.6,64.5,30.11,ENE,75,2.0,9.0,60,0.00,,CLR,0.00,592.00,VWS V14.01,2013-05-15 21:35:00,
2013-05-15 17:38:00,79.9,64.3,30.11,ENE,62,7.0,11.0,59,0.00,,SCT041,0.00,480.00,VWS V14.01,2013-05-15 21:38:00,
2013-05-15 17:40:00,79.9,64.3,30.11,NE,42,10.0,11.0,59,0.00,,CLR,0.00,480.00,VWS V14.01,2013-05-15 21:40:00,
2013-05-15 17:43:00,79.7,64.1,30.11,NE,51,5.0,10.0,59,0.00,,SCT041,0.00,441.00,VWS V14.01,2013-05-15 21:43:00,
2013-05-15 17:45:00,79.7,64.1,30.11,NE,51,3.0,10.0,59,0.00,,CLR,0.00,441.00,VWS V14.01,2013-05-15 21:45:00,
2013-05-15 17:48:00,79.7,64.6,30.11,East,91,6.0,9.0,60,0.00,,SCT041,0.00,592.00,VWS V14.01,2013-05-15 21:48:00,
2013-05-15 17:50:00,79.8,65.2,30.11,ESE,111,2.0,9.0,61,0.00,,CLR,0.00,592.00,VWS V14.01,2013-05-15 21:50:00,
2013-05-15 17:53:00,79.7,64.6,30.11,NNE,30,7.0,14.0,60,0.00,,SCT050,0.00,158.00,VWS V14.01,2013-05-15 21:53:00,
2013-05-15 17:55:00,79.7,64.6,30.11,NE,43,11.0,14.0,60,0.00,,CLR,0.00,158.00,VWS V14.01,2013-05-15 21:55:00,
2013-05-15 17:58:00,79.0,64.4,30.11,NE,40,9.0,11.0,61,0.00,,SCT050,0.00,179.00,VWS V14.01,2013-05-15 21:58:00,
2013-05-15 18:00:00,79.0,64.4,30.11,NE,34,7.0,11.0,61,0.00,,CLR,0.00,179.00,VWS V14.01,2013-05-15 22:00:00,
2013-05-15 18:03:00,78.9,63.8,30.11,East,83,9.0,14.0,60,0.00,,SCT050,0.00,473.00,VWS V14.01,2013-05-15 22:03:00,
2013-05-15 18:05:00,78.9,63.8,30.11,East,90,7.0,12.0,60,0.00,,CLR,0.00,473.00,VWS V14.01,2013-05-15 22:05:00,
2013-05-15 18:09:00,79.0,64.4,30.11,ENE,71,3.0,8.0,61,0.00,,SCT050,0.00,132.00,VWS V14.01,2013-05-15 22:09:00,
2013-05-15 18:10:00,79.0,64.4,30.11,NE,49,4.0,8.0,61,0.00,,CLR,0.00,132.00,VWS V14.01,2013-05-15 22:10:00,
2013-05-15 18:14:00,78.6,63.6,30.11,NE,36,10.0,11.0,60,0.00,,SCT050,0.00,114.00,VWS V14.01,2013-05-15 22:14:00,
2013-05-15 18:15:00,78.6,63.6,30.11,NE,34,8.0,11.0,60,0.00,,CLR,0.00,114.00,VWS V14.01,2013-05-15 22:15:00,
2013-05-15 18:19:00,78.4,63.8,30.10,ENE,71,2.0,6.0,61,0.00,,SCT050,0.00,107.00,VWS V14.01,2013-05-15 22:19:00,
2013-05-15 18:20:00,78.4,63.8,30.10,ENE,71,2.0,6.0,61,0.00,,CLR,0.00,107.00,VWS V14.01,2013-05-15 22:20:00,
2013-05-15 18:24:00,78.3,64.2,30.10,NE,46,5.0,8.0,62,0.00,,SCT050,0.00,97.00,VWS V14.01,2013-05-15 22:24:00,
2013-05-15 18:25:00,78.3,64.2,30.10,NE,46,5.0,8.0,62,0.00,,CLR,0.00,97.00,VWS V14.01,2013-05-15 22:25:00,
2013-05-15 18:29:00,78.2,63.7,30.10,East,92,5.0,11.0,61,0.00,,SCT050,0.00,97.00,VWS V14.01,2013-05-15 22:29:00,
2013-05-15 18:30:00,78.2,63.7,30.11,ESE,115,8.0,11.0,61,0.00,,CLR,0.00,97.00,VWS V14.01,2013-05-15 22:30:00,
2013-05-15 18:34:00,77.9,62.9,30.10,NE,46,6.0,14.0,60,0.00,,SCT050,0.00,90.00,VWS V14.01,2013-05-15 22:34:00,
2013-05-15 18:35:00,77.9,62.9,30.11,East,87,6.0,14.0,60,0.00,,CLR,0.00,90.00,VWS V14.01,2013-05-15 22:35:00,
2013-05-15 18:39:00,77.8,63.3,30.10,ENE,66,5.0,9.0,61,0.00,,SCT050,0.00,95.00,VWS V14.01,2013-05-15 22:39:00,
2013-05-15 18:40:00,77.8,63.3,30.10,East,92,5.0,9.0,61,0.00,,CLR,0.00,95.00,VWS V14.01,2013-05-15 22:40:00,
2013-05-15 18:44:00,77.8,63.3,30.10,ENE,67,7.0,13.0,61,0.00,,SCT050,0.00,84.00,VWS V14.01,2013-05-15 22:44:00,
2013-05-15 18:45:00,77.8,63.3,30.10,NE,39,9.0,10.0,61,0.00,,CLR,0.00,84.00,VWS V14.01,2013-05-15 22:45:00,
2013-05-15 18:49:00,77.7,63.2,30.11,ENE,66,4.0,11.0,61,0.00,,SCT050,0.00,76.00,VWS V14.01,2013-05-15 22:49:00,
2013-05-15 18:50:00,77.7,63.2,30.10,ENE,64,5.0,11.0,61,0.00,,CLR,0.00,76.00,VWS V14.01,2013-05-15 22:50:00,
2013-05-15 18:54:00,77.6,63.6,30.11,East,90,6.0,12.0,62,0.00,,SCT047,0.00,65.00,VWS V14.01,2013-05-15 22:54:00,
2013-05-15 18:55:00,77.6,63.6,30.11,SE,132,10.0,10.0,62,0.00,,CLR,0.00,69.00,VWS V14.01,2013-05-15 22:55:00,
2013-05-15 18:59:00,77.4,63.4,30.11,East,97,3.0,8.0,62,0.00,,SCT047,0.00,56.00,VWS V14.01,2013-05-15 22:59:00,
2013-05-15 19:00:00,77.4,63.8,30.11,ESE,111,3.0,5.0,63,0.00,,CLR,0.00,58.00,VWS V14.01,2013-05-15 23:00:00,
2013-05-15 19:04:00,77.4,63.8,30.11,ESE,110,1.0,9.0,63,0.00,,SCT047,0.00,53.00,VWS V14.01,2013-05-15 23:04:00,
2013-05-15 19:05:00,77.3,63.7,30.11,SSE,158,5.0,5.0,63,0.00,,CLR,0.00,54.00,VWS V14.01,2013-05-15 23:05:00,
2013-05-15 19:10:00,77.2,63.2,30.11,East,89,5.0,5.0,62,0.00,,SCT047,0.00,44.00,VWS V14.01,2013-05-15 23:10:00,
2013-05-15 19:15:00,77.1,62.6,30.11,NE,37,5.0,7.0,61,0.00,,SCT047,0.00,40.00,VWS V14.01,2013-05-15 23:15:00,
2013-05-15 19:20:00,77.0,63.0,30.11,ESE,109,7.0,10.0,62,0.00,,SCT047,0.00,47.00,VWS V14.01,2013-05-15 23:20:00,
2013-05-15 19:25:00,76.9,62.4,30.11,SE,125,5.0,11.0,61,0.00,,SCT047,0.00,42.00,VWS V14.01,2013-05-15 23:25:00,
2013-05-15 19:30:00,76.8,62.3,30.11,ENE,66,4.0,7.0,61,0.00,,SCT047,0.00,19.00,VWS V14.01,2013-05-15 23:30:00,
2013-05-15 19:35:00,76.7,62.7,30.10,NNE,33,5.0,9.0,62,0.00,,SCT047,0.00,16.00,VWS V14.01,2013-05-15 23:35:00,
2013-05-15 19:40:00,76.6,62.6,30.11,ENE,76,5.0,8.0,62,0.00,,SCT047,0.00,21.00,VWS V14.01,2013-05-15 23:40:00,
2013-05-15 19:45:00,76.5,62.5,30.11,East,88,2.0,8.0,62,0.00,,OVC060,0.00,16.00,VWS V14.01,2013-05-15 23:45:00,
2013-05-15 19:50:00,76.4,62.4,30.10,East,89,6.0,11.0,62,0.00,,OVC060,0.00,12.00,VWS V14.01,2013-05-15 23:50:00,
2013-05-15 19:55:00,76.3,62.8,30.10,ESE,110,9.0,9.0,63,0.00,,CLR,0.00,9.00,VWS V14.01,2013-05-15 23:55:00,
2013-05-15 19:56:00,76.2,62.7,30.11,ENE,63,7.0,9.0,63,0.00,,OVC060,0.00,7.00,VWS V14.01,2013-05-15 23:56:00,
2013-05-15 20:00:00,76.2,62.7,30.11,East,85,3.0,7.0,63,0.00,,CLR,0.00,0.00,VWS V14.01,2013-05-16 00:00:00,
2013-05-15 20:01:00,76.2,62.7,30.11,ENE,63,2.0,8.0,63,0.00,,OVC060,0.00,0.00,VWS V14.01,2013-05-16 00:01:00,
2013-05-15 20:05:00,76.1,62.6,30.11,East,90,2.0,6.0,63,0.00,,CLR,0.00,0.00,VWS V14.01,2013-05-16 00:05:00,
2013-05-15 20:06:00,76.0,62.0,30.11,ENE,72,7.0,9.0,62,0.00,,OVC060,0.00,0.00,VWS V14.01,2013-05-16 00:06:00,
2013-05-15 20:10:00,76.0,62.0,30.11,NE,52,4.0,8.0,62,0.00,,CLR,0.00,0.00,VWS V14.01,2013-05-16 00:10:00,
2013-05-15 20:11:00,75.9,62.0,30.11,NE,45,3.0,9.0,62,0.00,,FEW041,0.00,0.00,VWS V14.01,2013-05-16 00:11:00,
2013-05-15 20:15:00,75.9,62.0,30.11,NE,51,3.0,4.0,62,0.00,,CLR,0.00,0.00,VWS V14.01,2013-05-16 00:15:00,
2013-05-15 20:16:00,75.9,62.0,30.11,NE,44,7.0,7.0,62,0.00,,FEW041,0.00,0.00,VWS V14.01,2013-05-16 00:16:00,
2013-05-15 20:20:00,75.8,61.9,30.12,East,92,3.0,6.0,62,0.00,,CLR,0.00,0.00,VWS V14.01,2013-05-16 00:20:00,
2013-05-15 20:21:00,75.8,61.9,30.11,NE,37,3.0,7.0,62,0.00,,FEW041,0.00,0.00,VWS V14.01,2013-05-16 00:21:00,
2013-05-15 20:25:00,75.7,61.3,30.12,ESE,116,3.0,6.0,61,0.00,,CLR,0.00,0.00,VWS V14.01,2013-05-16 00:25:00,
2013-05-15 20:26:00,75.7,61.3,30.12,East,86,5.0,5.0,61,0.00,,FEW041,0.00,0.00,VWS V14.01,2013-05-16 00:26:00,
2013-05-15 20:30:00,75.6,61.2,30.12,East,92,2.0,4.0,61,0.00,,CLR,0.00,0.00,VWS V14.01,2013-05-16 00:30:00,
2013-05-15 20:31:00,75.6,61.2,30.11,NE,42,2.0,4.0,61,0.00,,FEW041,0.00,0.00,VWS V14.01,2013-05-16 00:31:00,
2013-05-15 20:35:00,75.5,61.1,30.12,ENE,74,4.0,9.0,61,0.00,,CLR,0.00,0.00,VWS V14.01,2013-05-16 00:35:00,
2013-05-15 20:36:00,75.4,61.5,30.12,ENE,71,4.0,8.0,62,0.00,,FEW041,0.00,0.00,VWS V14.01,2013-05-16 00:36:00,
2013-05-15 20:40:00,75.4,61.5,30.11,ENE,65,3.0,6.0,62,0.00,,CLR,0.00,0.00,VWS V14.01,2013-05-16 00:40:00,
2013-05-15 20:42:00,75.3,61.4,30.11,ENE,69,3.0,4.0,62,0.00,,FEW041,0.00,0.00,VWS V14.01,2013-05-16 00:42:00,
2013-05-15 20:45:00,75.3,61.4,30.11,ESE,115,2.0,3.0,62,0.00,,CLR,0.00,0.00,VWS V14.01,2013-05-16 00:45:00,
2013-05-15 20:47:00,75.2,60.8,30.11,ENE,71,4.0,6.0,61,0.00,,FEW041,0.00,0.00,VWS V14.01,2013-05-16 00:47:00,
2013-05-15 20:50:00,75.2,61.3,30.11,ENE,69,2.0,5.0,62,0.00,,CLR,0.00,0.00,VWS V14.01,2013-05-16 00:50:00,
2013-05-15 20:52:00,75.1,61.2,30.11,ENE,67,1.0,7.0,62,0.00,,FEW041,0.00,0.00,VWS V14.01,2013-05-16 00:52:00,
2013-05-15 20:55:00,75.1,61.2,30.11,ENE,65,2.0,6.0,62,0.00,,CLR,0.00,0.00,VWS V14.01,2013-05-16 00:55:00,
2013-05-15 20:57:00,75.1,61.2,30.11,East,90,3.0,4.0,62,0.00,,FEW041,0.00,0.00,VWS V14.01,2013-05-16 00:57:00,
2013-05-15 21:00:00,75.1,61.2,30.11,East,91,2.0,3.0,62,0.00,,CLR,0.00,0.00,VWS V14.01,2013-05-16 01:00:00,
2013-05-15 21:02:00,75.0,61.1,30.12,East,88,2.0,7.0,62,0.00,,FEW041,0.00,0.00,VWS V14.01,2013-05-16 01:02:00,
2013-05-15 21:05:00,74.9,61.0,30.12,East,91,3.0,5.0,62,0.00,,CLR,0.00,0.00,VWS V14.01,2013-05-16 01:05:00,
2013-05-15 21:07:00,74.9,61.0,30.12,East,88,2.0,4.0,62,0.00,,FEW041,0.00,0.00,VWS V14.01,2013-05-16 01:07:00,
2013-05-15 21:10:00,74.9,61.5,30.12,NE,36,3.0,5.0,63,0.00,,CLR,0.00,0.00,VWS V14.01,2013-05-16 01:10:00,
2013-05-15 21:12:00,74.8,60.9,30.12,SE,131,3.0,6.0,62,0.00,,FEW041,0.00,0.00,VWS V14.01,2013-05-16 01:12:00,
2013-05-15 21:15:00,74.8,61.4,30.12,East,84,2.0,5.0,63,0.00,,CLR,0.00,0.00,VWS V14.01,2013-05-16 01:15:00,
2013-05-15 21:18:00,74.7,60.8,30.12,ENE,70,2.0,5.0,62,0.00,,FEW041,0.00,0.00,VWS V14.01,2013-05-16 01:18:00,
2013-05-15 21:20:00,74.7,60.8,30.12,East,88,6.0,6.0,62,0.00,,CLR,0.00,0.00,VWS V14.01,2013-05-16 01:20:00,
2013-05-15 21:23:00,74.7,61.3,30.12,ESE,117,3.0,3.0,63,0.00,,FEW041,0.00,0.00,VWS V14.01,2013-05-16 01:23:00,
2013-05-15 21:25:00,74.7,61.3,30.12,NE,44,2.0,3.0,63,0.00,,CLR,0.00,0.00,VWS V14.01,2013-05-16 01:25:00,
2013-05-15 21:28:00,74.6,61.2,30.12,ESE,115,1.0,7.0,63,0.00,,FEW041,0.00,0.00,VWS V14.01,2013-05-16 01:28:00,
2013-05-15 21:30:00,74.6,61.2,30.12,East,90,7.0,7.0,63,0.00,,CLR,0.00,0.00,VWS V14.01,2013-05-16 01:30:00,
2013-05-15 21:33:00,74.5,61.1,30.12,East,88,3.0,4.0,63,0.00,,FEW041,0.00,0.00,VWS V14.01,2013-05-16 01:33:00,
2013-05-15 21:35:00,74.5,61.1,30.12,SE,125,4.0,5.0,63,0.00,,CLR,0.00,0.00,VWS V14.01,2013-05-16 01:35:00,
2013-05-15 21:38:00,74.5,61.1,30.12,ENE,70,2.0,3.0,63,0.00,,FEW041,0.00,0.00,VWS V14.01,2013-05-16 01:38:00,
2013-05-15 21:40:00,74.4,61.0,30.12,NE,46,2.0,3.0,63,0.00,,CLR,0.00,0.00,VWS V14.01,2013-05-16 01:40:00,
2013-05-15 21:43:00,74.4,61.0,30.12,ENE,71,3.0,4.0,63,0.00,,FEW041,0.00,0.00,VWS V14.01,2013-05-16 01:43:00,
2013-05-15 21:45:00,74.4,61.0,30.12,SE,128,2.0,4.0,63,0.00,,CLR,0.00,0.00,VWS V14.01,2013-05-16 01:45:00,
2013-05-15 21:48:00,74.4,60.5,30.12,East,92,2.0,4.0,62,0.00,,FEW041,0.00,0.00,VWS V14.01,2013-05-16 01:48:00,
2013-05-15 21:50:00,74.4,60.5,30.12,ENE,66,3.0,3.0,62,0.00,,CLR,0.00,0.00,VWS V14.01,2013-05-16 01:50:00,
2013-05-15 21:53:00,74.4,60.5,30.12,East,84,2.0,5.0,62,0.00,,CLR,0.00,0.00,VWS V14.01,2013-05-16 01:53:00,
2013-05-15 21:55:00,74.4,60.5,30.12,NE,45,1.0,3.0,62,0.00,,CLR,0.00,0.00,VWS V14.01,2013-05-16 01:55:00,
2013-05-15 21:59:00,74.3,60.5,30.12,ENE,73,2.0,2.0,62,0.00,,CLR,0.00,0.00,VWS V14.01,2013-05-16 01:59:00,
2013-05-15 22:00:00,74.3,60.5,30.12,ENE,73,1.0,2.0,62,0.00,,CLR,0.00,0.00,VWS V14.01,2013-05-16 02:00:00,
2013-05-15 22:04:00,74.2,60.8,30.13,NE,48,3.0,4.0,63,0.00,,CLR,0.00,0.00,VWS V14.01,2013-05-16 02:04:00,
2013-05-15 22:05:00,74.2,60.8,30.13,NE,36,2.0,4.0,63,0.00,,CLR,0.00,0.00,VWS V14.01,2013-05-16 02:05:00,
2013-05-15 22:09:00,74.2,60.8,30.13,SE,134,1.0,3.0,63,0.00,,CLR,0.00,0.00,VWS V14.01,2013-05-16 02:09:00,
2013-05-15 22:10:00,74.2,60.8,30.13,SE,134,2.0,3.0,63,0.00,,CLR,0.00,0.00,VWS V14.01,2013-05-16 02:10:00,
2013-05-15 22:14:00,74.2,61.2,30.13,NE,47,1.0,4.0,64,0.00,,CLR,0.00,0.00,VWS V14.01,2013-05-16 02:14:00,
2013-05-15 22:15:00,74.2,61.2,30.13,NE,47,1.0,4.0,64,0.00,,CLR,0.00,0.00,VWS V14.01,2013-05-16 02:15:00,
2013-05-15 22:19:00,74.2,61.2,30.13,ENE,72,1.0,3.0,64,0.00,,CLR,0.00,0.00,VWS V14.01,2013-05-16 02:19:00,
2013-05-15 22:20:00,74.2,61.2,30.13,ENE,72,1.0,2.0,64,0.00,,CLR,0.00,0.00,VWS V14.01,2013-05-16 02:20:00,
2013-05-15 22:24:00,74.0,61.1,30.13,NE,43,2.0,3.0,64,0.00,,CLR,0.00,0.00,VWS V14.01,2013-05-16 02:24:00,
2013-05-15 22:25:00,74.0,61.1,30.13,NE,43,2.0,3.0,64,0.00,,CLR,0.00,0.00,VWS V14.01,2013-05-16 02:25:00,
2013-05-15 22:29:00,73.9,61.0,30.13,ENE,69,2.0,8.0,64,0.00,,CLR,0.00,0.00,VWS V14.01,2013-05-16 02:29:00,
2013-05-15 22:30:00,73.9,61.0,30.13,ENE,69,2.0,8.0,64,0.00,,CLR,0.00,0.00,VWS V14.01,2013-05-16 02:30:00,
2013-05-15 22:34:00,73.9,60.5,30.13,East,83,2.0,3.0,63,0.00,,CLR,0.00,0.00,VWS V14.01,2013-05-16 02:34:00,
2013-05-15 22:35:00,73.9,60.5,30.13,East,83,2.0,3.0,63,0.00,,CLR,0.00,0.00,VWS V14.01,2013-05-16 02:35:00,
2013-05-15 22:39:00,73.9,61.0,30.13,NE,46,1.0,2.0,64,0.00,,CLR,0.00,0.00,VWS V14.01,2013-05-16 02:39:00,
2013-05-15 22:40:00,73.9,61.0,30.13,NE,46,1.0,2.0,64,0.00,,CLR,0.00,0.00,VWS V14.01,2013-05-16 02:40:00,
2013-05-15 22:44:00,73.7,60.8,30.13,NE,47,3.0,3.0,64,0.00,,CLR,0.00,0.00,VWS V14.01,2013-05-16 02:44:00,
2013-05-15 22:45:00,73.7,60.8,30.13,NE,47,3.0,3.0,64,0.00,,CLR,0.00,0.00,VWS V14.01,2013-05-16 02:45:00,
2013-05-15 22:49:00,73.7,60.8,30.13,NE,51,3.0,5.0,64,0.00,,CLR,0.00,0.00,VWS V14.01,2013-05-16 02:49:00,
2013-05-15 22:50:00,73.7,60.8,30.13,NE,51,3.0,5.0,64,0.00,,CLR,0.00,0.00,VWS V14.01,2013-05-16 02:50:00,
2013-05-15 22:54:00,73.8,60.9,30.13,ESE,120,2.0,4.0,64,0.00,,CLR,0.00,0.00,VWS V14.01,2013-05-16 02:54:00,
2013-05-15 22:55:00,73.8,60.9,30.13,ESE,120,2.0,4.0,64,0.00,,CLR,0.00,0.00,VWS V14.01,2013-05-16 02:55:00,
2013-05-15 22:59:00,73.8,60.9,30.13,NNE,30,2.0,7.0,64,0.00,,CLR,0.00,0.00,VWS V14.01,2013-05-16 02:59:00,
2013-05-15 23:00:00,73.8,60.9,30.13,NNE,30,2.0,7.0,64,0.00,,CLR,0.00,0.00,VWS V14.01,2013-05-16 03:00:00,
2013-05-15 23:04:00,73.7,60.8,30.13,ESE,109,3.0,5.0,64,0.00,,CLR,0.00,0.00,VWS V14.01,2013-05-16 03:04:00,
2013-05-15 23:05:00,73.7,60.8,30.13,ESE,109,3.0,5.0,64,0.00,,CLR,0.00,0.00,VWS V14.01,2013-05-16 03:05:00,
2013-05-15 23:09:00,73.7,60.8,30.13,East,86,0.0,5.0,64,0.00,,CLR,0.00,0.00,VWS V14.01,2013-05-16 03:09:00,
2013-05-15 23:10:00,73.7,60.3,30.13,East,83,1.0,5.0,63,0.00,,CLR,0.00,0.00,VWS V14.01,2013-05-16 03:10:00,
2013-05-15 23:14:00,73.6,60.7,30.13,ESE,108,3.0,8.0,64,0.00,,CLR,0.00,0.00,VWS V14.01,2013-05-16 03:14:00,
2013-05-15 23:15:00,73.6,60.7,30.13,East,90,8.0,8.0,64,0.00,,CLR,0.00,0.00,VWS V14.01,2013-05-16 03:15:00,
2013-05-15 23:19:00,73.6,60.7,30.13,ENE,65,3.0,3.0,64,0.00,,CLR,0.00,0.00,VWS V14.01,2013-05-16 03:19:00,
2013-05-15 23:20:00,73.7,60.8,30.13,ENE,67,1.0,3.0,64,0.00,,CLR,0.00,0.00,VWS V14.01,2013-05-16 03:20:00,
2013-05-15 23:24:00,73.5,60.6,30.13,ENE,67,2.0,4.0,64,0.00,,CLR,0.00,0.00,VWS V14.01,2013-05-16 03:24:00,
2013-05-15 23:25:00,73.6,60.7,30.13,NE,45,1.0,4.0,64,0.00,,CLR,0.00,0.00,VWS V14.01,2013-05-16 03:25:00,
2013-05-15 23:29:00,73.5,60.6,30.13,ENE,65,3.0,5.0,64,0.00,,CLR,0.00,0.00,VWS V14.01,2013-05-16 03:29:00,
2013-05-15 23:30:00,73.5,60.6,30.13,East,92,3.0,5.0,64,0.00,,CLR,0.00,0.00,VWS V14.01,2013-05-16 03:30:00,
2013-05-15 23:34:00,73.5,60.6,30.13,East,90,2.0,5.0,64,0.00,,CLR,0.00,0.00,VWS V14.01,2013-05-16 03:34:00,
2013-05-15 23:35:00,73.5,60.6,30.13,East,96,1.0,5.0,64,0.00,,CLR,0.00,0.00,VWS V14.01,2013-05-16 03:35:00,
2013-05-15 23:39:00,73.5,60.6,30.13,NE,51,1.0,3.0,64,0.00,,CLR,0.00,0.00,VWS V14.01,2013-05-16 03:39:00,
2013-05-15 23:40:00,73.5,60.6,30.13,NE,51,1.0,4.0,64,0.00,,CLR,0.00,0.00,VWS V14.01,2013-05-16 03:40:00,
2013-05-15 23:44:00,73.5,60.6,30.13,SE,126,4.0,6.0,64,0.00,,CLR,0.00,0.00,VWS V14.01,2013-05-16 03:44:00,
2013-05-15 23:45:00,73.5,60.6,30.13,East,88,1.0,6.0,64,0.00,,CLR,0.00,0.00,VWS V14.01,2013-05-16 03:45:00,
2013-05-15 23:49:00,73.5,60.6,30.13,SE,133,5.0,9.0,64,0.00,,CLR,0.00,0.00,VWS V14.01,2013-05-16 03:49:00,
2013-05-15 23:50:00,73.5,60.6,30.12,NE,42,7.0,9.0,64,0.00,,CLR,0.00,0.00,VWS V14.01,2013-05-16 03:50:00,
2013-05-15 23:54:00,73.6,60.7,30.12,ENE,74,2.0,7.0,64,0.00,,CLR,0.00,0.00,VWS V14.01,2013-05-16 03:54:00,
2013-05-15 23:55:00,73.6,60.7,30.13,ENE,69,3.0,7.0,64,0.00,,CLR,0.00,0.00,VWS V14.01,2013-05-16 03:55:00,
2013-05-15 23:59:00,73.5,60.6,30.13,SE,134,1.0,5.0,64,0.00,,CLR,0.00,0.00,VWS V14.01,2013-05-16 03:59:00,